Time,TemperatureF,DewpointF,PressureIn,WindDirection,WindDirectionDegrees,WindSpeedMPH,WindSpeedGustMPH,Humidity,HourlyPrecipIn,Conditions,Clouds,dailyrainin,SoftwareType,DateUTC
2013-07-30 00:00:00,57.2,54.6,28.94,WNW,292,0.0,0.0,91,0.00,CLR,,0.00,WeatherDisplay:10.37,2013-07-30 05:00:00,
2013-07-30 00:03:00,57.2,54.3,28.94,WNW,292,0.0,0.0,90,0.00,CLR,,0.00,WeatherDisplay:10.37,2013-07-30 05:03:00,
2013-07-30 00:04:00,57.2,54.3,28.94,WNW,292,0.0,0.0,90,0.00,CLR,,0.00,WeatherDisplay:10.37,2013-07-30 05:04:00,
2013-07-30 00:05:00,57.2,54.3,28.94,WNW,292,0.0,0.0,90,0.00,CLR,,0.00,WeatherDisplay:10.37,2013-07-30 05:05:00,
2013-07-30 00:07:00,57.0,54.4,28.94,WNW,292,0.0,0.0,91,0.00,CLR,,0.00,WeatherDisplay:10.37,2013-07-30 05:07:00,
2013-07-30 00:09:00,57.0,54.4,28.94,WNW,292,0.0,0.0,91,0.00,CLR,,0.00,WeatherDisplay:10.37,2013-07-30 05:09:00,
2013-07-30 00:10:00,57.0,54.4,28.95,WNW,292,0.0,0.0,91,0.00,CLR,,0.00,WeatherDisplay:10.37,2013-07-30 05:10:00,
2013-07-30 00:13:00,56.8,54.2,28.97,NW,315,0.0,0.0,91,0.00,CLR,,0.00,WeatherDisplay:10.37,2013-07-30 05:13:00,
2013-07-30 00:14:00,56.8,54.2,28.97,NW,315,0.0,0.0,91,0.00,CLR,,0.00,WeatherDisplay:10.37,2013-07-30 05:14:00,
2013-07-30 00:15:00,56.7,54.1,28.97,NW,315,0.0,0.0,91,0.00,CLR,,0.00,WeatherDisplay:10.37,2013-07-30 05:15:00,
2013-07-30 00:18:00,56.7,54.1,28.97,NW,315,0.0,0.0,91,0.00,CLR,,0.00,WeatherDisplay:10.37,2013-07-30 05:18:00,
2013-07-30 00:19:00,56.7,54.1,28.97,NW,315,0.0,0.0,91,0.00,CLR,,0.00,WeatherDisplay:10.37,2013-07-30 05:19:00,
2013-07-30 00:20:00,56.7,54.1,28.97,NW,315,0.0,0.0,91,0.00,CLR,,0.00,WeatherDisplay:10.37,2013-07-30 05:20:00,
2013-07-30 00:24:00,56.5,53.9,28.97,NW,315,0.0,0.0,91,0.00,CLR,,0.00,WeatherDisplay:10.37,2013-07-30 05:24:00,
2013-07-30 00:25:00,56.5,53.9,28.97,NW,315,0.0,0.0,91,0.00,CLR,,0.00,WeatherDisplay:10.37,2013-07-30 05:25:00,
2013-07-30 00:29:00,56.3,53.7,28.97,NW,315,0.0,0.0,91,0.00,CLR,,0.00,WeatherDisplay:10.37,2013-07-30 05:29:00,
2013-07-30 00:30:00,56.3,53.7,28.97,NW,315,0.0,0.0,91,0.00,CLR,,0.00,WeatherDisplay:10.37,2013-07-30 05:30:00,
2013-07-30 00:31:00,56.3,53.7,28.97,NW,315,0.0,0.0,91,0.00,CLR,,0.00,WeatherDisplay:10.37,2013-07-30 05:31:00,
2013-07-30 00:34:00,56.3,53.7,28.97,WNW,292,0.0,0.0,91,0.00,CLR,,0.00,WeatherDisplay:10.37,2013-07-30 05:34:00,
2013-07-30 00:35:00,56.1,53.5,28.97,WNW,292,0.0,0.0,91,0.00,CLR,,0.00,WeatherDisplay:10.37,2013-07-30 05:35:00,
2013-07-30 00:36:00,56.1,53.5,28.97,WNW,292,0.0,0.0,91,0.00,CLR,,0.00,WeatherDisplay:10.37,2013-07-30 05:36:00,
2013-07-30 00:37:00,56.1,53.5,28.97,WNW,292,0.0,0.0,91,0.00,CLR,,0.00,WeatherDisplay:10.37,2013-07-30 05:37:00,
2013-07-30 00:39:00,56.1,53.8,28.97,WNW,292,0.0,0.0,92,0.00,CLR,,0.00,WeatherDisplay:10.37,2013-07-30 05:39:00,
2013-07-30 00:41:00,56.1,53.8,28.97,WNW,292,0.0,0.0,92,0.00,CLR,,0.00,WeatherDisplay:10.37,2013-07-30 05:41:00,
2013-07-30 00:42:00,56.1,53.8,28.97,WNW,292,0.0,0.0,92,0.00,CLR,,0.00,WeatherDisplay:10.37,2013-07-30 05:42:00,
2013-07-30 00:44:00,56.1,53.8,28.97,WNW,292,0.0,0.0,92,0.00,CLR,,0.00,WeatherDisplay:10.37,2013-07-30 05:44:00,
2013-07-30 00:46:00,56.1,53.8,28.97,WNW,292,0.0,0.0,92,0.00,CLR,,0.00,WeatherDisplay:10.37,2013-07-30 05:46:00,
2013-07-30 00:47:00,56.1,53.8,28.97,WNW,292,0.0,0.0,92,0.00,CLR,,0.00,WeatherDisplay:10.37,2013-07-30 05:47:00,
2013-07-30 00:48:00,56.1,53.8,28.97,WNW,292,0.0,0.0,92,0.00,CLR,,0.00,WeatherDisplay:10.37,2013-07-30 05:48:00,
2013-07-30 00:50:00,56.1,53.8,28.97,West,276,0.0,0.0,92,0.00,CLR,,0.00,WeatherDisplay:10.37,2013-07-30 05:50:00,
2013-07-30 00:52:00,56.3,54.0,28.97,SW,225,0.0,0.0,92,0.00,CLR,,0.00,WeatherDisplay:10.37,2013-07-30 05:52:00,
2013-07-30 00:53:00,56.3,54.0,28.97,SW,225,0.0,0.0,92,0.00,CLR,,0.00,WeatherDisplay:10.37,2013-07-30 05:53:00,
2013-07-30 00:55:00,56.1,53.8,28.97,SSW,202,0.0,0.0,92,0.00,CLR,,0.00,WeatherDisplay:10.37,2013-07-30 05:55:00,
2013-07-30 00:57:00,56.1,53.5,28.97,SSW,202,0.0,0.0,91,0.00,CLR,,0.00,WeatherDisplay:10.37,2013-07-30 05:57:00,
2013-07-30 00:58:00,56.1,53.5,28.97,SSW,202,0.0,0.0,91,0.00,CLR,,0.00,WeatherDisplay:10.37,2013-07-30 05:58:00,
2013-07-30 01:00:00,56.1,53.8,28.97,SSW,202,0.0,0.0,92,0.00,CLR,,0.00,WeatherDisplay:10.37,2013-07-30 06:00:00,
2013-07-30 01:02:00,56.1,53.8,28.97,SSW,202,0.0,0.0,92,0.00,CLR,,0.00,WeatherDisplay:10.37,2013-07-30 06:02:00,
2013-07-30 01:03:00,56.1,53.8,28.97,SSW,202,0.0,0.0,92,0.00,CLR,,0.00,WeatherDisplay:10.37,2013-07-30 06:03:00,
2013-07-30 01:04:00,56.1,53.8,28.97,SSW,202,0.0,0.0,92,0.00,CLR,,0.00,WeatherDisplay:10.37,2013-07-30 06:04:00,
2013-07-30 01:06:00,56.1,53.8,28.97,SSW,202,0.0,0.0,92,0.00,CLR,,0.00,WeatherDisplay:10.37,2013-07-30 06:06:00,
2013-07-30 01:07:00,56.1,53.8,28.97,SSW,202,0.0,0.0,92,0.00,CLR,,0.00,WeatherDisplay:10.37,2013-07-30 06:07:00,
2013-07-30 01:08:00,56.1,53.8,28.97,SSW,202,0.0,0.0,92,0.00,CLR,,0.00,WeatherDisplay:10.37,2013-07-30 06:08:00,
2013-07-30 01:09:00,56.1,53.8,28.97,SSW,202,0.0,0.0,92,0.00,CLR,,0.00,WeatherDisplay:10.37,2013-07-30 06:09:00,
2013-07-30 01:11:00,55.9,53.6,28.97,SSW,202,0.0,0.0,92,0.00,CLR,,0.00,WeatherDisplay:10.37,2013-07-30 06:11:00,
2013-07-30 01:12:00,55.9,53.6,28.97,SSW,202,0.0,0.0,92,0.00,CLR,,0.00,WeatherDisplay:10.37,2013-07-30 06:12:00,
2013-07-30 01:13:00,55.9,53.6,28.97,SSW,202,0.0,0.0,92,0.00,CLR,,0.00,WeatherDisplay:10.37,2013-07-30 06:13:00,
2013-07-30 01:14:00,55.9,53.6,28.97,SSW,202,0.0,0.0,92,0.00,CLR,,0.00,WeatherDisplay:10.37,2013-07-30 06:14:00,
2013-07-30 01:17:00,55.8,53.5,28.97,SSW,202,0.0,0.0,92,0.00,CLR,,0.00,WeatherDisplay:10.37,2013-07-30 06:17:00,
2013-07-30 01:18:00,55.8,53.5,28.97,SSW,202,0.0,0.0,92,0.00,CLR,,0.00,WeatherDisplay:10.37,2013-07-30 06:18:00,
2013-07-30 01:19:00,55.8,53.5,28.97,SSW,202,0.0,0.0,92,0.00,CLR,,0.00,WeatherDisplay:10.37,2013-07-30 06:19:00,
2013-07-30 01:20:00,55.8,53.5,28.97,SSW,202,0.0,0.0,92,0.00,CLR,,0.00,WeatherDisplay:10.37,2013-07-30 06:20:00,
2013-07-30 01:22:00,55.6,53.3,28.97,SSW,202,0.0,0.0,92,0.00,CLR,,0.00,WeatherDisplay:10.37,2013-07-30 06:22:00,
2013-07-30 01:23:00,55.6,53.3,28.97,SSW,202,0.0,0.0,92,0.00,CLR,,0.00,WeatherDisplay:10.37,2013-07-30 06:23:00,
2013-07-30 01:24:00,55.4,53.1,28.97,SSW,202,0.0,0.0,92,0.00,CLR,,0.00,WeatherDisplay:10.37,2013-07-30 06:24:00,
2013-07-30 01:25:00,55.4,53.1,28.97,SSW,202,0.0,0.0,92,0.00,CLR,,0.00,WeatherDisplay:10.37,2013-07-30 06:25:00,
2013-07-30 01:27:00,55.2,53.2,28.97,SSW,202,0.0,0.0,93,0.00,CLR,,0.00,WeatherDisplay:10.37,2013-07-30 06:27:00,
2013-07-30 01:28:00,55.2,53.2,28.97,NW,315,0.0,0.0,93,0.00,CLR,,0.00,WeatherDisplay:10.37,2013-07-30 06:28:00,
2013-07-30 01:29:00,55.2,53.2,28.97,NW,315,0.0,0.0,93,0.00,CLR,,0.00,WeatherDisplay:10.37,2013-07-30 06:29:00,
2013-07-30 01:30:00,55.2,53.2,28.97,NW,315,0.0,0.0,93,0.00,CLR,,0.00,WeatherDisplay:10.37,2013-07-30 06:30:00,
2013-07-30 01:32:00,55.0,53.1,28.97,NW,315,0.0,0.0,93,0.00,CLR,,0.00,WeatherDisplay:10.37,2013-07-30 06:32:00,
2013-07-30 01:33:00,55.0,53.1,28.97,NW,315,0.0,0.0,93,0.00,CLR,,0.00,WeatherDisplay:10.37,2013-07-30 06:33:00,
2013-07-30 01:34:00,55.0,53.1,28.97,NW,315,0.0,0.0,93,0.00,CLR,,0.00,WeatherDisplay:10.37,2013-07-30 06:34:00,
2013-07-30 01:35:00,55.0,53.1,28.97,NW,315,0.0,0.0,93,0.00,CLR,,0.00,WeatherDisplay:10.37,2013-07-30 06:35:00,
2013-07-30 01:37:00,55.0,53.1,28.97,NW,315,0.0,0.0,93,0.00,CLR,,0.00,WeatherDisplay:10.37,2013-07-30 06:37:00,
2013-07-30 01:38:00,55.0,53.1,28.97,NW,315,0.0,0.0,93,0.00,CLR,,0.00,WeatherDisplay:10.37,2013-07-30 06:38:00,
2013-07-30 01:39:00,55.0,53.1,29.00,NW,315,0.0,0.0,93,0.00,CLR,,0.00,WeatherDisplay:10.37,2013-07-30 06:39:00,
2013-07-30 01:40:00,55.0,53.1,29.00,NW,315,0.0,0.0,93,0.00,CLR,,0.00,WeatherDisplay:10.37,2013-07-30 06:40:00,
2013-07-30 01:43:00,54.9,52.9,29.00,NW,315,0.0,0.0,93,0.00,CLR,,0.00,WeatherDisplay:10.37,2013-07-30 06:43:00,
2013-07-30 01:44:00,54.9,52.6,29.00,NW,315,0.0,0.0,92,0.00,CLR,,0.00,WeatherDisplay:10.37,2013-07-30 06:44:00,
2013-07-30 01:45:00,54.9,52.9,29.00,NW,315,0.0,0.0,93,0.00,CLR,,0.00,WeatherDisplay:10.37,2013-07-30 06:45:00,
2013-07-30 01:48:00,54.7,52.4,29.00,NW,315,0.0,0.0,92,0.00,CLR,,0.00,WeatherDisplay:10.37,2013-07-30 06:48:00,
2013-07-30 01:49:00,54.7,52.4,29.00,NW,315,0.0,0.0,92,0.00,CLR,,0.00,WeatherDisplay:10.37,2013-07-30 06:49:00,
2013-07-30 01:50:00,54.7,52.4,29.00,NW,315,0.0,0.0,92,0.00,CLR,,0.00,WeatherDisplay:10.37,2013-07-30 06:50:00,
2013-07-30 01:53:00,54.5,52.2,29.00,NW,315,0.0,0.0,92,0.00,CLR,,0.00,WeatherDisplay:10.37,2013-07-30 06:53:00,
2013-07-30 01:54:00,54.5,52.2,28.97,NW,315,0.0,0.0,92,0.00,CLR,,0.00,WeatherDisplay:10.37,2013-07-30 06:54:00,
2013-07-30 01:55:00,54.5,52.2,28.97,NW,315,0.0,0.0,92,0.00,CLR,,0.00,WeatherDisplay:10.37,2013-07-30 06:55:00,
2013-07-30 01:56:00,54.5,52.5,28.97,NW,315,0.0,0.0,93,0.00,CLR,,0.00,WeatherDisplay:10.37,2013-07-30 06:56:00,
2013-07-30 01:58:00,54.5,52.5,28.97,NW,315,0.0,0.0,93,0.00,CLR,,0.00,WeatherDisplay:10.37,2013-07-30 06:58:00,
2013-07-30 02:00:00,54.3,52.3,28.97,NW,315,0.0,0.0,93,0.00,CLR,,0.00,WeatherDisplay:10.37,2013-07-30 07:00:00,
2013-07-30 02:02:00,54.3,52.3,28.97,NW,315,0.0,0.0,93,0.00,CLR,,0.00,WeatherDisplay:10.37,2013-07-30 07:02:00,
2013-07-30 02:03:00,54.3,52.3,28.97,NW,315,0.0,0.0,93,0.00,CLR,,0.00,WeatherDisplay:10.37,2013-07-30 07:03:00,
2013-07-30 02:05:00,54.3,52.3,28.97,NW,315,0.0,0.0,93,0.00,CLR,,0.00,WeatherDisplay:10.37,2013-07-30 07:05:00,
2013-07-30 02:06:00,54.5,52.5,28.97,North,0,0.0,0.0,93,0.00,CLR,,0.00,WeatherDisplay:10.37,2013-07-30 07:06:00,
2013-07-30 02:07:00,54.5,52.5,28.97,North,0,0.0,0.0,93,0.00,CLR,,0.00,WeatherDisplay:10.37,2013-07-30 07:07:00,
2013-07-30 02:08:00,54.5,52.8,28.97,North,0,0.0,0.0,94,0.00,CLR,,0.00,WeatherDisplay:10.37,2013-07-30 07:08:00,
2013-07-30 02:11:00,54.5,52.8,28.97,North,0,0.0,0.0,94,0.00,CLR,,0.00,WeatherDisplay:10.37,2013-07-30 07:11:00,
2013-07-30 02:12:00,54.5,52.8,28.97,North,0,0.0,0.0,94,0.00,CLR,,0.00,WeatherDisplay:10.37,2013-07-30 07:12:00,
2013-07-30 02:14:00,54.5,52.8,28.97,North,0,0.0,0.0,94,0.00,CLR,,0.00,WeatherDisplay:10.37,2013-07-30 07:14:00,
2013-07-30 02:16:00,54.5,52.8,28.97,North,0,0.0,0.0,94,0.00,CLR,,0.00,WeatherDisplay:10.37,2013-07-30 07:16:00,
2013-07-30 02:18:00,54.3,52.6,28.97,North,0,0.0,0.0,94,0.00,CLR,,0.00,WeatherDisplay:10.37,2013-07-30 07:18:00,
2013-07-30 02:19:00,54.3,52.6,28.97,North,0,0.0,0.0,94,0.00,CLR,,0.00,WeatherDisplay:10.37,2013-07-30 07:19:00,
2013-07-30 02:21:00,54.3,52.6,28.97,North,0,0.0,0.0,94,0.00,CLR,,0.00,WeatherDisplay:10.37,2013-07-30 07:21:00,
2013-07-30 02:23:00,54.1,52.5,28.97,North,0,0.0,0.0,94,0.00,CLR,,0.00,WeatherDisplay:10.37,2013-07-30 07:23:00,
2013-07-30 02:24:00,54.1,52.5,28.97,North,0,0.0,0.0,94,0.00,CLR,,0.00,WeatherDisplay:10.37,2013-07-30 07:24:00,
2013-07-30 02:28:00,54.1,52.5,28.97,North,0,0.0,0.0,94,0.00,CLR,,0.00,WeatherDisplay:10.37,2013-07-30 07:28:00,
2013-07-30 02:29:00,54.1,52.2,28.97,North,0,0.0,0.0,93,0.00,CLR,,0.00,WeatherDisplay:10.37,2013-07-30 07:29:00,
2013-07-30 02:33:00,54.1,52.5,28.97,North,0,0.0,0.0,94,0.00,CLR,,0.00,WeatherDisplay:10.37,2013-07-30 07:33:00,
2013-07-30 02:34:00,54.0,52.3,28.97,North,0,0.0,0.0,94,0.00,CLR,,0.00,WeatherDisplay:10.37,2013-07-30 07:34:00,
2013-07-30 02:35:00,54.0,52.3,28.97,North,0,0.0,0.0,94,0.00,CLR,,0.00,WeatherDisplay:10.37,2013-07-30 07:35:00,
2013-07-30 02:38:00,53.8,52.1,28.97,North,0,0.0,0.0,94,0.00,CLR,,0.00,WeatherDisplay:10.37,2013-07-30 07:38:00,
2013-07-30 02:39:00,53.8,52.1,28.97,North,0,0.0,0.0,94,0.00,CLR,,0.00,WeatherDisplay:10.37,2013-07-30 07:39:00,
2013-07-30 02:40:00,53.8,52.1,28.94,North,0,0.0,0.0,94,0.00,CLR,,0.00,WeatherDisplay:10.37,2013-07-30 07:40:00,
2013-07-30 02:43:00,53.6,51.9,28.94,North,0,0.0,0.0,94,0.00,CLR,,0.00,WeatherDisplay:10.37,2013-07-30 07:43:00,
2013-07-30 02:44:00,53.6,51.9,28.94,North,0,0.0,0.0,94,0.00,CLR,,0.00,WeatherDisplay:10.37,2013-07-30 07:44:00,
2013-07-30 02:45:00,53.6,51.9,28.94,North,0,0.0,0.0,94,0.00,CLR,,0.00,WeatherDisplay:10.37,2013-07-30 07:45:00,
2013-07-30 02:49:00,53.8,52.1,28.94,North,0,0.0,0.0,94,0.00,CLR,,0.00,WeatherDisplay:10.37,2013-07-30 07:49:00,
2013-07-30 02:50:00,53.8,52.1,28.94,North,0,0.0,0.0,94,0.00,CLR,,0.00,WeatherDisplay:10.37,2013-07-30 07:50:00,
2013-07-30 02:51:00,53.8,52.1,28.94,North,0,0.0,0.0,94,0.00,CLR,,0.00,WeatherDisplay:10.37,2013-07-30 07:51:00,
2013-07-30 02:54:00,53.6,51.9,28.94,North,0,0.0,0.0,94,0.00,CLR,,0.00,WeatherDisplay:10.37,2013-07-30 07:54:00,
2013-07-30 02:55:00,53.6,51.9,28.97,North,0,0.0,0.0,94,0.00,CLR,,0.00,WeatherDisplay:10.37,2013-07-30 07:55:00,
2013-07-30 02:56:00,53.4,52.0,28.97,North,0,0.0,0.0,95,0.00,CLR,,0.00,WeatherDisplay:10.37,2013-07-30 07:56:00,
2013-07-30 02:59:00,53.4,52.0,28.97,North,0,0.0,0.0,95,0.00,CLR,,0.00,WeatherDisplay:10.37,2013-07-30 07:59:00,
2013-07-30 03:00:00,53.4,52.0,28.97,North,0,0.0,0.0,95,0.00,CLR,,0.00,WeatherDisplay:10.37,2013-07-30 08:00:00,
2013-07-30 03:01:00,53.4,52.0,28.97,North,0,0.0,0.0,95,0.00,CLR,,0.00,WeatherDisplay:10.37,2013-07-30 08:01:00,
2013-07-30 03:04:00,53.4,52.0,28.97,North,0,0.0,0.0,95,0.00,CLR,,0.00,WeatherDisplay:10.37,2013-07-30 08:04:00,
2013-07-30 03:05:00,53.2,51.8,28.97,North,0,0.0,0.0,95,0.00,CLR,,0.00,WeatherDisplay:10.37,2013-07-30 08:05:00,
2013-07-30 03:06:00,53.2,51.8,28.97,North,0,0.0,0.0,95,0.00,CLR,,0.00,WeatherDisplay:10.37,2013-07-30 08:06:00,
2013-07-30 03:10:00,53.2,51.8,28.97,North,0,0.0,0.0,95,0.00,CLR,,0.00,WeatherDisplay:10.37,2013-07-30 08:10:00,
2013-07-30 03:12:00,53.2,51.8,28.97,North,0,0.0,0.0,95,0.00,CLR,,0.00,WeatherDisplay:10.37,2013-07-30 08:12:00,
2013-07-30 03:13:00,53.4,52.0,28.97,North,0,0.0,0.0,95,0.00,CLR,,0.00,WeatherDisplay:10.37,2013-07-30 08:13:00,
2013-07-30 03:15:00,53.4,52.0,28.97,North,0,0.0,0.0,95,0.00,CLR,,0.00,WeatherDisplay:10.37,2013-07-30 08:15:00,
2013-07-30 03:16:00,53.4,52.0,28.97,North,0,0.0,0.0,95,0.00,CLR,,0.00,WeatherDisplay:10.37,2013-07-30 08:16:00,
2013-07-30 03:17:00,53.6,52.2,28.97,North,0,0.0,0.0,95,0.00,CLR,,0.00,WeatherDisplay:10.37,2013-07-30 08:17:00,
2013-07-30 03:18:00,53.6,52.2,28.97,North,0,0.0,0.0,95,0.00,CLR,,0.00,WeatherDisplay:10.37,2013-07-30 08:18:00,
2013-07-30 03:20:00,53.6,52.2,28.97,North,0,0.0,0.0,95,0.00,CLR,,0.00,WeatherDisplay:10.37,2013-07-30 08:20:00,
2013-07-30 03:21:00,53.6,52.2,28.97,North,0,0.0,0.0,95,0.00,CLR,,0.00,WeatherDisplay:10.37,2013-07-30 08:21:00,
2013-07-30 03:22:00,53.6,52.2,28.97,North,0,0.0,0.0,95,0.00,CLR,,0.00,WeatherDisplay:10.37,2013-07-30 08:22:00,
2013-07-30 03:23:00,53.8,52.4,28.97,North,0,0.0,0.0,95,0.00,CLR,,0.00,WeatherDisplay:10.37,2013-07-30 08:23:00,
2013-07-30 03:26:00,53.8,52.4,28.97,North,0,0.0,0.0,95,0.00,CLR,,0.00,WeatherDisplay:10.37,2013-07-30 08:26:00,
2013-07-30 03:27:00,53.8,52.4,28.97,North,0,0.0,0.0,95,0.00,CLR,,0.00,WeatherDisplay:10.37,2013-07-30 08:27:00,
2013-07-30 03:28:00,53.8,52.4,28.97,North,0,0.0,0.0,95,0.00,CLR,,0.00,WeatherDisplay:10.37,2013-07-30 08:28:00,
2013-07-30 03:31:00,54.0,52.6,28.97,North,0,0.0,0.0,95,0.00,CLR,,0.00,WeatherDisplay:10.37,2013-07-30 08:31:00,
2013-07-30 03:32:00,54.0,52.6,28.97,North,0,0.0,0.0,95,0.00,CLR,,0.00,WeatherDisplay:10.37,2013-07-30 08:32:00,
2013-07-30 03:33:00,54.0,52.6,28.97,North,0,0.0,0.0,95,0.00,CLR,,0.00,WeatherDisplay:10.37,2013-07-30 08:33:00,
2013-07-30 03:34:00,54.0,52.6,28.97,North,0,0.0,0.0,95,0.00,CLR,,0.00,WeatherDisplay:10.37,2013-07-30 08:34:00,
2013-07-30 03:36:00,54.0,52.6,28.97,North,0,0.0,0.0,95,0.00,CLR,,0.00,WeatherDisplay:10.37,2013-07-30 08:36:00,
2013-07-30 03:37:00,54.0,52.6,28.97,North,0,0.0,0.0,95,0.00,CLR,,0.00,WeatherDisplay:10.37,2013-07-30 08:37:00,
2013-07-30 03:38:00,54.1,52.7,28.97,NW,315,0.0,0.0,95,0.00,CLR,,0.00,WeatherDisplay:10.37,2013-07-30 08:38:00,
2013-07-30 03:39:00,54.1,52.7,28.97,West,270,0.0,0.0,95,0.00,CLR,,0.00,WeatherDisplay:10.37,2013-07-30 08:39:00,
2013-07-30 03:42:00,54.3,52.9,28.97,WSW,248,0.0,0.0,95,0.00,CLR,,0.00,WeatherDisplay:10.37,2013-07-30 08:42:00,
2013-07-30 03:43:00,54.3,52.9,28.97,WSW,248,0.0,0.0,95,0.00,CLR,,0.00,WeatherDisplay:10.37,2013-07-30 08:43:00,
2013-07-30 03:45:00,54.5,53.1,28.97,West,277,0.0,0.0,95,0.00,CLR,,0.00,WeatherDisplay:10.37,2013-07-30 08:45:00,
2013-07-30 03:47:00,54.5,53.1,28.97,WSW,248,0.0,0.0,95,0.00,CLR,,0.00,WeatherDisplay:10.37,2013-07-30 08:47:00,
2013-07-30 03:48:00,54.5,53.1,28.97,WSW,248,0.0,0.0,95,0.00,CLR,,0.00,WeatherDisplay:10.37,2013-07-30 08:48:00,
2013-07-30 03:49:00,54.7,53.6,28.97,WSW,248,0.0,0.0,96,0.00,CLR,,0.00,WeatherDisplay:10.37,2013-07-30 08:49:00,
2013-07-30 03:50:00,54.7,53.6,28.97,WSW,249,0.0,0.0,96,0.00,CLR,,0.00,WeatherDisplay:10.37,2013-07-30 08:50:00,
2013-07-30 03:52:00,54.7,53.3,28.97,NW,315,0.0,0.0,95,0.00,CLR,,0.00,WeatherDisplay:10.37,2013-07-30 08:52:00,
2013-07-30 03:53:00,54.7,53.3,28.97,NW,315,0.0,0.0,95,0.00,CLR,,0.00,WeatherDisplay:10.37,2013-07-30 08:53:00,
2013-07-30 03:54:00,54.7,53.3,28.97,NW,315,0.0,0.0,95,0.00,CLR,,0.00,WeatherDisplay:10.37,2013-07-30 08:54:00,
2013-07-30 03:55:00,54.7,53.3,28.97,NW,315,0.0,0.0,95,0.00,CLR,,0.00,WeatherDisplay:10.37,2013-07-30 08:55:00,
2013-07-30 03:58:00,54.5,53.1,28.97,NW,315,0.0,0.0,95,0.00,CLR,,0.00,WeatherDisplay:10.37,2013-07-30 08:58:00,
2013-07-30 03:59:00,54.5,53.1,28.97,NW,315,0.0,0.0,95,0.00,CLR,,0.00,WeatherDisplay:10.37,2013-07-30 08:59:00,
2013-07-30 04:00:00,54.5,53.1,28.97,NW,315,0.0,0.0,95,0.00,CLR,,0.00,WeatherDisplay:10.37,2013-07-30 09:00:00,
2013-07-30 04:03:00,54.5,53.1,28.97,NW,315,0.0,0.0,95,0.00,CLR,,0.00,WeatherDisplay:10.37,2013-07-30 09:03:00,
2013-07-30 04:04:00,54.5,53.1,28.97,NW,315,0.0,0.0,95,0.00,CLR,,0.00,WeatherDisplay:10.37,2013-07-30 09:04:00,
2013-07-30 04:05:00,54.5,53.1,28.97,NW,315,0.0,0.0,95,0.00,CLR,,0.00,WeatherDisplay:10.37,2013-07-30 09:05:00,
2013-07-30 04:08:00,54.5,53.1,28.97,NW,315,0.0,0.0,95,0.00,CLR,,0.00,WeatherDisplay:10.37,2013-07-30 09:08:00,
2013-07-30 04:09:00,54.5,53.1,28.97,South,180,0.0,0.0,95,0.00,CLR,,0.00,WeatherDisplay:10.37,2013-07-30 09:09:00,
2013-07-30 04:10:00,80.1,54.2,28.88,South,187,3.0,6.0,41,0.00,CLR,,0.00,WeatherDisplay:10.37,2013-07-30 09:10:00,
2013-07-30 04:11:00,54.5,53.1,28.97,South,180,0.0,0.0,95,0.00,CLR,,0.00,WeatherDisplay:10.37,2013-07-30 09:11:00,
2013-07-30 04:13:00,54.5,53.1,28.97,South,180,0.0,0.0,95,0.00,CLR,,0.00,WeatherDisplay:10.37,2013-07-30 09:13:00,
2013-07-30 04:14:00,54.7,53.3,28.97,South,180,0.0,0.0,95,0.00,CLR,,0.00,WeatherDisplay:10.37,2013-07-30 09:14:00,
2013-07-30 04:16:00,54.7,53.3,28.97,South,180,0.0,0.0,95,0.00,CLR,,0.00,WeatherDisplay:10.37,2013-07-30 09:16:00,
2013-07-30 04:18:00,54.7,53.6,28.97,South,180,0.0,0.0,96,0.00,CLR,,0.00,WeatherDisplay:10.37,2013-07-30 09:18:00,
2013-07-30 04:19:00,54.9,53.7,28.97,South,180,0.0,0.0,96,0.00,CLR,,0.00,WeatherDisplay:10.37,2013-07-30 09:19:00,
2013-07-30 04:20:00,54.9,53.7,28.97,South,180,0.0,0.0,96,0.00,CLR,,0.00,WeatherDisplay:10.37,2013-07-30 09:20:00,
2013-07-30 04:21:00,54.7,53.6,28.97,South,180,0.0,0.0,96,0.00,CLR,,0.00,WeatherDisplay:10.37,2013-07-30 09:21:00,
2013-07-30 04:23:00,54.5,53.4,28.97,South,180,0.0,0.0,96,0.00,CLR,,0.00,WeatherDisplay:10.37,2013-07-30 09:23:00,
2013-07-30 04:24:00,54.5,53.4,28.97,South,180,0.0,0.0,96,0.00,CLR,,0.00,WeatherDisplay:10.37,2013-07-30 09:24:00,
2013-07-30 04:25:00,54.5,53.4,28.97,South,180,0.0,0.0,96,0.00,CLR,,0.00,WeatherDisplay:10.37,2013-07-30 09:25:00,
2013-07-30 04:26:00,54.3,52.9,28.97,South,180,0.0,0.0,95,0.00,CLR,,0.00,WeatherDisplay:10.37,2013-07-30 09:26:00,
2013-07-30 04:28:00,54.3,52.9,28.97,South,180,0.0,0.0,95,0.00,CLR,,0.00,WeatherDisplay:10.37,2013-07-30 09:28:00,
2013-07-30 04:29:00,54.1,52.7,28.97,South,180,0.0,0.0,95,0.00,CLR,,0.00,WeatherDisplay:10.37,2013-07-30 09:29:00,
2013-07-30 04:30:00,54.1,52.7,28.97,South,180,0.0,0.0,95,0.00,CLR,,0.00,WeatherDisplay:10.37,2013-07-30 09:30:00,
2013-07-30 04:31:00,54.1,52.7,28.97,South,180,0.0,0.0,95,0.00,CLR,,0.00,WeatherDisplay:10.37,2013-07-30 09:31:00,
2013-07-30 04:33:00,54.1,52.7,28.97,South,180,0.0,0.0,95,0.00,CLR,,0.00,WeatherDisplay:10.37,2013-07-30 09:33:00,
2013-07-30 04:34:00,54.1,52.7,28.97,South,180,0.0,0.0,95,0.00,CLR,,0.00,WeatherDisplay:10.37,2013-07-30 09:34:00,
2013-07-30 04:35:00,54.1,52.7,28.97,South,180,0.0,0.0,95,0.00,CLR,,0.00,WeatherDisplay:10.37,2013-07-30 09:35:00,
2013-07-30 04:37:00,54.1,52.7,28.97,South,180,0.0,0.0,95,0.00,CLR,,0.00,WeatherDisplay:10.37,2013-07-30 09:37:00,
2013-07-30 04:38:00,54.0,52.6,28.97,South,180,0.0,0.0,95,0.00,CLR,,0.00,WeatherDisplay:10.37,2013-07-30 09:38:00,
2013-07-30 04:39:00,54.0,52.6,28.97,South,180,0.0,0.0,95,0.00,CLR,,0.00,WeatherDisplay:10.37,2013-07-30 09:39:00,
2013-07-30 04:40:00,54.0,52.6,28.97,South,180,0.0,0.0,95,0.00,CLR,,0.00,WeatherDisplay:10.37,2013-07-30 09:40:00,
2013-07-30 04:41:00,54.0,52.6,28.97,South,180,0.0,0.0,95,0.00,CLR,,0.00,WeatherDisplay:10.37,2013-07-30 09:41:00,
2013-07-30 04:42:00,54.0,52.6,28.97,South,180,0.0,0.0,95,0.00,CLR,,0.00,WeatherDisplay:10.37,2013-07-30 09:42:00,
2013-07-30 04:44:00,54.0,52.6,28.97,South,180,0.0,0.0,95,0.00,CLR,,0.00,WeatherDisplay:10.37,2013-07-30 09:44:00,
2013-07-30 04:45:00,54.0,52.6,28.97,South,180,0.0,0.0,95,0.00,CLR,,0.00,WeatherDisplay:10.37,2013-07-30 09:45:00,
2013-07-30 04:46:00,54.0,52.6,28.97,South,180,0.0,0.0,95,0.00,CLR,,0.00,WeatherDisplay:10.37,2013-07-30 09:46:00,
2013-07-30 04:48:00,54.0,52.6,28.97,South,180,0.0,0.0,95,0.00,CLR,,0.00,WeatherDisplay:10.37,2013-07-30 09:48:00,
2013-07-30 04:49:00,54.0,52.6,28.97,South,180,0.0,0.0,95,0.00,CLR,,0.00,WeatherDisplay:10.37,2013-07-30 09:49:00,
2013-07-30 04:50:00,54.0,52.6,28.97,South,180,0.0,0.0,95,0.00,CLR,,0.00,WeatherDisplay:10.37,2013-07-30 09:50:00,
2013-07-30 04:52:00,53.8,52.4,28.97,South,180,0.0,0.0,95,0.00,CLR,,0.00,WeatherDisplay:10.37,2013-07-30 09:52:00,
2013-07-30 04:53:00,53.8,52.4,28.97,South,180,0.0,0.0,95,0.00,CLR,,0.00,WeatherDisplay:10.37,2013-07-30 09:53:00,
2013-07-30 04:54:00,53.8,52.4,28.97,South,180,0.0,0.0,95,0.00,CLR,,0.00,WeatherDisplay:10.37,2013-07-30 09:54:00,
2013-07-30 04:55:00,53.8,52.4,28.97,South,180,0.0,0.0,95,0.00,CLR,,0.00,WeatherDisplay:10.37,2013-07-30 09:55:00,
2013-07-30 04:57:00,53.6,52.2,28.97,South,180,0.0,0.0,95,0.00,CLR,,0.00,WeatherDisplay:10.37,2013-07-30 09:57:00,
2013-07-30 04:58:00,53.6,52.2,28.97,South,180,0.0,0.0,95,0.00,CLR,,0.00,WeatherDisplay:10.37,2013-07-30 09:58:00,
2013-07-30 05:00:00,53.6,52.2,28.97,South,180,0.0,0.0,95,0.00,CLR,,0.00,WeatherDisplay:10.37,2013-07-30 10:00:00,
2013-07-30 05:03:00,53.4,52.3,28.97,South,180,0.0,0.0,96,0.00,CLR,,0.00,WeatherDisplay:10.37,2013-07-30 10:03:00,
2013-07-30 05:05:00,53.4,52.0,28.97,South,180,0.0,0.0,95,0.00,CLR,,0.00,WeatherDisplay:10.37,2013-07-30 10:05:00,
2013-07-30 05:06:00,53.4,52.0,28.97,South,180,0.0,0.0,95,0.00,CLR,,0.00,WeatherDisplay:10.37,2013-07-30 10:06:00,
2013-07-30 05:08:00,53.4,52.3,28.97,South,180,0.0,0.0,96,0.00,CLR,,0.00,WeatherDisplay:10.37,2013-07-30 10:08:00,
2013-07-30 05:09:00,53.4,52.3,28.97,South,180,0.0,0.0,96,0.00,CLR,,0.00,WeatherDisplay:10.37,2013-07-30 10:09:00,
2013-07-30 05:10:00,53.4,52.3,28.97,South,180,0.0,0.0,96,0.00,CLR,,0.00,WeatherDisplay:10.37,2013-07-30 10:10:00,
2013-07-30 05:11:00,53.4,52.3,28.97,South,180,0.0,0.0,96,0.00,CLR,,0.00,WeatherDisplay:10.37,2013-07-30 10:11:00,
2013-07-30 05:13:00,53.6,52.5,28.97,South,180,0.0,0.0,96,0.00,CLR,,0.00,WeatherDisplay:10.37,2013-07-30 10:13:00,
2013-07-30 05:14:00,53.6,52.5,28.97,South,180,0.0,0.0,96,0.00,CLR,,0.00,WeatherDisplay:10.37,2013-07-30 10:14:00,
2013-07-30 05:15:00,53.6,52.5,28.97,South,180,0.0,0.0,96,0.00,CLR,,0.00,WeatherDisplay:10.37,2013-07-30 10:15:00,
2013-07-30 05:16:00,53.6,52.5,28.97,South,180,0.0,0.0,96,0.00,CLR,,0.00,WeatherDisplay:10.37,2013-07-30 10:16:00,
2013-07-30 05:18:00,53.6,52.5,28.97,South,180,0.0,0.0,96,0.00,CLR,,0.00,WeatherDisplay:10.37,2013-07-30 10:18:00,
2013-07-30 05:19:00,53.6,52.5,28.97,South,180,0.0,0.0,96,0.00,CLR,,0.00,WeatherDisplay:10.37,2013-07-30 10:19:00,
2013-07-30 05:20:00,53.8,52.7,28.97,South,180,0.0,0.0,96,0.00,CLR,,0.00,WeatherDisplay:10.37,2013-07-30 10:20:00,
2013-07-30 05:23:00,54.0,52.8,28.97,South,180,0.0,0.0,96,0.00,CLR,,0.00,WeatherDisplay:10.37,2013-07-30 10:23:00,
2013-07-30 05:24:00,54.0,53.1,28.97,South,180,0.0,0.0,97,0.00,CLR,,0.00,WeatherDisplay:10.37,2013-07-30 10:24:00,
2013-07-30 05:25:00,54.1,53.3,29.00,South,180,0.0,0.0,97,0.00,CLR,,0.00,WeatherDisplay:10.37,2013-07-30 10:25:00,
2013-07-30 05:28:00,54.1,53.3,29.00,South,180,0.0,0.0,97,0.00,CLR,,0.00,WeatherDisplay:10.37,2013-07-30 10:28:00,
2013-07-30 05:29:00,54.1,53.3,29.00,South,180,0.0,0.0,97,0.00,CLR,,0.00,WeatherDisplay:10.37,2013-07-30 10:29:00,
2013-07-30 05:30:00,54.3,53.5,29.00,South,180,0.0,0.0,97,0.00,CLR,,0.00,WeatherDisplay:10.37,2013-07-30 10:30:00,
2013-07-30 05:31:00,54.3,53.5,29.00,South,180,0.0,0.0,97,0.00,CLR,,0.00,WeatherDisplay:10.37,2013-07-30 10:31:00,
2013-07-30 05:33:00,54.5,53.7,29.00,South,180,0.0,0.0,97,0.00,CLR,,0.00,WeatherDisplay:10.37,2013-07-30 10:33:00,
2013-07-30 05:34:00,54.5,53.7,29.00,South,180,0.0,0.0,97,0.00,CLR,,0.00,WeatherDisplay:10.37,2013-07-30 10:34:00,
2013-07-30 05:35:00,54.5,53.7,29.00,South,180,0.0,0.0,97,0.00,CLR,,0.00,WeatherDisplay:10.37,2013-07-30 10:35:00,
2013-07-30 05:36:00,54.7,53.8,29.00,South,180,0.0,0.0,97,0.00,CLR,,0.00,WeatherDisplay:10.37,2013-07-30 10:36:00,
2013-07-30 05:38:00,54.7,53.8,29.00,South,180,0.0,0.0,97,0.00,CLR,,0.00,WeatherDisplay:10.37,2013-07-30 10:38:00,
2013-07-30 05:39:00,54.7,53.8,28.97,South,180,0.0,0.0,97,0.00,CLR,,0.00,WeatherDisplay:10.37,2013-07-30 10:39:00,
2013-07-30 05:40:00,54.9,54.0,28.97,South,180,0.0,0.0,97,0.00,CLR,,0.00,WeatherDisplay:10.37,2013-07-30 10:40:00,
2013-07-30 05:41:00,54.9,54.0,28.97,South,180,0.0,0.0,97,0.00,CLR,,0.00,WeatherDisplay:10.37,2013-07-30 10:41:00,
2013-07-30 05:43:00,55.0,54.5,28.97,South,180,0.0,0.0,98,0.00,CLR,,0.00,WeatherDisplay:10.37,2013-07-30 10:43:00,
2013-07-30 05:45:00,55.0,54.5,28.97,South,180,0.0,0.0,98,0.00,CLR,,0.00,WeatherDisplay:10.37,2013-07-30 10:45:00,
2013-07-30 05:46:00,55.0,54.5,28.97,South,180,0.0,0.0,98,0.00,CLR,,0.00,WeatherDisplay:10.37,2013-07-30 10:46:00,
2013-07-30 05:47:00,55.2,54.7,28.97,South,180,0.0,0.0,98,0.00,CLR,,0.00,WeatherDisplay:10.37,2013-07-30 10:47:00,
2013-07-30 05:48:00,55.2,54.7,28.97,South,180,0.0,0.0,98,0.00,CLR,,0.00,WeatherDisplay:10.37,2013-07-30 10:48:00,
2013-07-30 05:50:00,55.2,54.7,28.97,South,180,0.0,0.0,98,0.00,CLR,,0.00,WeatherDisplay:10.37,2013-07-30 10:50:00,
2013-07-30 05:51:00,55.2,54.7,28.97,South,180,0.0,0.0,98,0.00,CLR,,0.00,WeatherDisplay:10.37,2013-07-30 10:51:00,
2013-07-30 05:52:00,55.2,54.7,28.97,South,180,0.0,0.0,98,0.00,CLR,,0.00,WeatherDisplay:10.37,2013-07-30 10:52:00,
2013-07-30 05:53:00,55.2,54.4,28.97,South,180,0.0,0.0,97,0.00,CLR,,0.00,WeatherDisplay:10.37,2013-07-30 10:53:00,
2013-07-30 05:55:00,55.4,54.6,28.97,South,180,0.0,0.0,97,0.00,CLR,,0.00,WeatherDisplay:10.37,2013-07-30 10:55:00,
2013-07-30 05:56:00,55.4,54.6,28.97,South,180,0.0,0.0,97,0.00,CLR,,0.00,WeatherDisplay:10.37,2013-07-30 10:56:00,
2013-07-30 05:57:00,55.4,54.6,28.97,South,180,0.0,0.0,97,0.00,CLR,,0.00,WeatherDisplay:10.37,2013-07-30 10:57:00,
2013-07-30 05:58:00,55.4,54.6,28.97,South,180,0.0,0.0,97,0.00,CLR,,0.00,WeatherDisplay:10.37,2013-07-30 10:58:00,
2013-07-30 06:01:00,55.4,54.6,28.97,South,180,0.0,0.0,97,0.00,CLR,,0.00,WeatherDisplay:10.37,2013-07-30 11:01:00,
2013-07-30 06:02:00,55.4,54.6,28.97,South,180,0.0,0.0,97,0.00,CLR,,0.00,WeatherDisplay:10.37,2013-07-30 11:02:00,
2013-07-30 06:04:00,55.6,54.7,28.97,South,180,0.0,0.0,97,0.00,CLR,,0.00,WeatherDisplay:10.37,2013-07-30 11:04:00,
2013-07-30 06:06:00,55.6,54.7,28.97,South,180,0.0,0.0,97,0.00,CLR,,0.00,WeatherDisplay:10.37,2013-07-30 11:06:00,
2013-07-30 06:07:00,55.8,54.9,28.97,South,180,0.0,0.0,97,0.00,CLR,,0.00,WeatherDisplay:10.37,2013-07-30 11:07:00,
2013-07-30 06:08:00,55.8,54.9,28.97,South,180,0.0,0.0,97,0.00,CLR,,0.00,WeatherDisplay:10.37,2013-07-30 11:08:00,
2013-07-30 06:09:00,55.8,54.9,28.97,South,180,0.0,0.0,97,0.00,CLR,,0.00,WeatherDisplay:10.37,2013-07-30 11:09:00,
2013-07-30 06:12:00,55.9,55.1,29.00,South,180,0.0,0.0,97,0.00,CLR,,0.00,WeatherDisplay:10.37,2013-07-30 11:12:00,
2013-07-30 06:13:00,56.1,55.3,29.00,South,180,0.0,0.0,97,0.00,CLR,,0.00,WeatherDisplay:10.37,2013-07-30 11:13:00,
2013-07-30 06:14:00,56.1,55.3,29.00,South,180,0.0,0.0,97,0.00,CLR,,0.00,WeatherDisplay:10.37,2013-07-30 11:14:00,
2013-07-30 06:17:00,56.3,55.5,29.00,South,180,0.0,0.0,97,0.00,CLR,,0.00,WeatherDisplay:10.37,2013-07-30 11:17:00,
2013-07-30 06:18:00,56.3,55.5,29.00,South,180,0.0,0.0,97,0.00,CLR,,0.00,WeatherDisplay:10.37,2013-07-30 11:18:00,
2013-07-30 06:19:00,56.5,55.9,29.00,SSE,158,0.0,0.0,98,0.00,CLR,,0.00,WeatherDisplay:10.37,2013-07-30 11:19:00,
2013-07-30 06:22:00,56.7,56.1,29.00,SSE,158,0.0,0.0,98,0.00,CLR,,0.00,WeatherDisplay:10.37,2013-07-30 11:22:00,
2013-07-30 06:23:00,56.7,56.1,29.00,SSE,158,0.0,0.0,98,0.00,CLR,,0.00,WeatherDisplay:10.37,2013-07-30 11:23:00,
2013-07-30 06:24:00,56.7,56.1,28.97,SSE,158,0.0,0.0,98,0.00,CLR,,0.00,WeatherDisplay:10.37,2013-07-30 11:24:00,
2013-07-30 06:27:00,56.7,56.1,28.97,SSE,158,0.0,0.0,98,0.00,CLR,,0.00,WeatherDisplay:10.37,2013-07-30 11:27:00,
2013-07-30 06:28:00,56.7,56.1,28.97,SSE,158,0.0,0.0,98,0.00,CLR,,0.00,WeatherDisplay:10.37,2013-07-30 11:28:00,
2013-07-30 06:30:00,56.7,55.8,28.97,SSE,158,0.0,0.0,97,0.00,CLR,,0.00,WeatherDisplay:10.37,2013-07-30 11:30:00,
2013-07-30 06:33:00,56.7,55.8,28.97,SSE,158,0.0,0.0,97,0.00,CLR,,0.00,WeatherDisplay:10.37,2013-07-30 11:33:00,
2013-07-30 06:36:00,56.7,55.8,28.97,SSE,158,0.0,0.0,97,0.00,CLR,,0.00,WeatherDisplay:10.37,2013-07-30 11:36:00,
2013-07-30 06:38:00,56.8,56.0,28.97,SSE,158,0.0,0.0,97,0.00,CLR,,0.00,WeatherDisplay:10.37,2013-07-30 11:38:00,
2013-07-30 06:39:00,56.8,56.0,28.97,SSE,158,0.0,0.0,97,0.00,CLR,,0.00,WeatherDisplay:10.37,2013-07-30 11:39:00,
2013-07-30 06:41:00,57.0,56.2,28.97,SSE,158,0.0,0.0,97,0.00,CLR,,0.00,WeatherDisplay:10.37,2013-07-30 11:41:00,
2013-07-30 06:43:00,57.0,56.2,28.97,SSE,158,0.0,0.0,97,0.00,CLR,,0.00,WeatherDisplay:10.37,2013-07-30 11:43:00,
2013-07-30 06:44:00,57.2,56.4,28.97,SSE,158,0.0,0.0,97,0.00,CLR,,0.00,WeatherDisplay:10.37,2013-07-30 11:44:00,
2013-07-30 06:46:00,57.2,56.4,28.97,SSE,158,0.0,0.0,97,0.00,CLR,,0.00,WeatherDisplay:10.37,2013-07-30 11:46:00,
2013-07-30 06:48:00,57.4,56.5,28.97,SSE,158,0.0,0.0,97,0.00,CLR,,0.00,WeatherDisplay:10.37,2013-07-30 11:48:00,
2013-07-30 06:49:00,57.4,56.5,28.97,SSE,158,0.0,0.0,97,0.00,CLR,,0.00,WeatherDisplay:10.37,2013-07-30 11:49:00,
2013-07-30 06:52:00,57.6,56.7,28.97,SSE,158,0.0,0.0,97,0.00,CLR,,0.00,WeatherDisplay:10.37,2013-07-30 11:52:00,
2013-07-30 06:53:00,57.6,56.7,28.97,SSE,158,0.0,0.0,97,0.00,CLR,,0.00,WeatherDisplay:10.37,2013-07-30 11:53:00,
2013-07-30 06:55:00,57.7,56.9,28.97,SSE,158,0.0,0.0,97,0.00,CLR,,0.00,WeatherDisplay:10.37,2013-07-30 11:55:00,
2013-07-30 06:57:00,57.7,57.2,28.97,SSE,158,0.0,0.0,98,0.00,CLR,,0.00,WeatherDisplay:10.37,2013-07-30 11:57:00,
2013-07-30 06:58:00,57.9,57.4,28.97,SSE,158,0.0,0.0,98,0.00,CLR,,0.00,WeatherDisplay:10.37,2013-07-30 11:58:00,
2013-07-30 06:59:00,57.9,57.4,28.97,SSE,158,0.0,0.0,98,0.00,CLR,,0.00,WeatherDisplay:10.37,2013-07-30 11:59:00,
2013-07-30 07:00:00,57.9,57.4,28.97,SSE,158,0.0,0.0,98,0.00,CLR,,0.00,WeatherDisplay:10.37,2013-07-30 12:00:00,
2013-07-30 07:02:00,57.9,57.4,28.97,SSE,158,0.0,0.0,98,0.00,CLR,,0.00,WeatherDisplay:10.37,2013-07-30 12:02:00,
2013-07-30 07:03:00,58.1,57.5,28.97,SSE,158,0.0,0.0,98,0.00,CLR,,0.00,WeatherDisplay:10.37,2013-07-30 12:03:00,
2013-07-30 07:04:00,58.1,57.5,28.97,SSE,158,0.0,0.0,98,0.00,CLR,,0.00,WeatherDisplay:10.37,2013-07-30 12:04:00,
2013-07-30 07:05:00,58.1,57.3,28.97,SSE,158,0.0,0.0,97,0.00,CLR,,0.00,WeatherDisplay:10.37,2013-07-30 12:05:00,
2013-07-30 07:08:00,58.1,57.3,28.97,SSE,158,0.0,0.0,97,0.00,CLR,,0.00,WeatherDisplay:10.37,2013-07-30 12:08:00,
2013-07-30 07:09:00,58.1,57.3,28.97,SSE,158,0.0,0.0,97,0.00,CLR,,0.00,WeatherDisplay:10.37,2013-07-30 12:09:00,
2013-07-30 07:10:00,58.3,57.4,29.00,SSE,158,0.0,0.0,97,0.00,CLR,,0.00,WeatherDisplay:10.37,2013-07-30 12:10:00,
2013-07-30 07:13:00,58.5,57.6,29.00,SSE,158,0.0,0.0,97,0.00,CLR,,0.00,WeatherDisplay:10.37,2013-07-30 12:13:00,
2013-07-30 07:14:00,58.5,57.6,29.00,SSE,158,0.0,0.0,97,0.00,CLR,,0.00,WeatherDisplay:10.37,2013-07-30 12:14:00,
2013-07-30 07:15:00,58.6,57.8,29.00,SSE,158,0.0,0.0,97,0.00,CLR,,0.00,WeatherDisplay:10.37,2013-07-30 12:15:00,
2013-07-30 07:18:00,58.8,58.3,29.00,SSE,158,0.0,0.0,98,0.00,CLR,,0.00,WeatherDisplay:10.37,2013-07-30 12:18:00,
2013-07-30 07:19:00,58.8,58.3,29.00,SSE,158,0.0,0.0,98,0.00,CLR,,0.00,WeatherDisplay:10.37,2013-07-30 12:19:00,
2013-07-30 07:21:00,59.0,58.2,29.00,SSE,158,0.0,0.0,97,0.00,CLR,,0.00,WeatherDisplay:10.37,2013-07-30 12:21:00,
2013-07-30 07:23:00,59.0,58.2,29.00,SSE,158,0.0,0.0,97,0.00,CLR,,0.00,WeatherDisplay:10.37,2013-07-30 12:23:00,
2013-07-30 07:24:00,59.2,58.3,29.00,SSE,158,0.0,0.0,97,0.00,CLR,,0.00,WeatherDisplay:10.37,2013-07-30 12:24:00,
2013-07-30 07:25:00,59.1,58.3,29.00,SSE,158,0.0,0.0,97,0.00,CLR,,0.00,WeatherDisplay:10.37,2013-07-30 12:25:00,
2013-07-30 07:26:00,59.2,58.3,29.00,SSE,158,0.0,0.0,97,0.00,CLR,,0.00,WeatherDisplay:10.37,2013-07-30 12:26:00,
2013-07-30 07:29:00,59.2,58.3,29.00,SSE,158,0.0,0.0,97,0.00,CLR,,0.00,WeatherDisplay:10.37,2013-07-30 12:29:00,
2013-07-30 07:30:00,59.2,58.3,29.00,SSE,158,0.0,0.0,97,0.00,CLR,,0.00,WeatherDisplay:10.37,2013-07-30 12:30:00,
2013-07-30 07:31:00,59.2,58.3,29.00,SSE,158,0.0,0.0,97,0.00,CLR,,0.00,WeatherDisplay:10.37,2013-07-30 12:31:00,
2013-07-30 07:34:00,59.2,58.0,29.00,SSE,158,0.0,0.0,96,0.00,CLR,,0.00,WeatherDisplay:10.37,2013-07-30 12:34:00,
2013-07-30 07:35:00,59.2,58.0,29.00,SSE,158,0.0,0.0,96,0.00,CLR,,0.00,WeatherDisplay:10.37,2013-07-30 12:35:00,
2013-07-30 07:36:00,59.4,58.2,29.00,SSE,158,0.0,0.0,96,0.00,CLR,,0.00,WeatherDisplay:10.37,2013-07-30 12:36:00,
2013-07-30 07:40:00,59.4,58.2,29.00,SSE,158,0.0,0.0,96,0.00,CLR,,0.00,WeatherDisplay:10.37,2013-07-30 12:40:00,
2013-07-30 07:41:00,59.4,58.2,29.00,SSE,158,0.0,0.0,96,0.00,CLR,,0.00,WeatherDisplay:10.37,2013-07-30 12:41:00,
2013-07-30 07:42:00,59.4,58.2,29.00,SSE,158,0.0,0.0,96,0.00,CLR,,0.00,WeatherDisplay:10.37,2013-07-30 12:42:00,
2013-07-30 07:45:00,59.4,58.2,29.00,SE,135,0.0,0.0,96,0.00,CLR,,0.00,WeatherDisplay:10.37,2013-07-30 12:45:00,
2013-07-30 07:46:00,59.4,58.2,29.00,ESE,112,0.0,0.0,96,0.00,CLR,,0.00,WeatherDisplay:10.37,2013-07-30 12:46:00,
2013-07-30 07:47:00,59.4,58.2,29.00,ESE,112,0.0,0.0,96,0.00,CLR,,0.00,WeatherDisplay:10.37,2013-07-30 12:47:00,
2013-07-30 07:48:00,59.4,58.2,29.00,ESE,112,0.0,0.0,96,0.00,CLR,,0.00,WeatherDisplay:10.37,2013-07-30 12:48:00,
2013-07-30 07:50:00,59.5,58.4,29.00,ESE,112,0.0,0.0,96,0.00,CLR,,0.00,WeatherDisplay:10.37,2013-07-30 12:50:00,
2013-07-30 07:51:00,59.5,58.4,29.00,ESE,112,0.0,0.0,96,0.00,CLR,,0.00,WeatherDisplay:10.37,2013-07-30 12:51:00,
2013-07-30 07:52:00,59.5,58.4,29.00,ESE,112,0.0,0.0,96,0.00,CLR,,0.00,WeatherDisplay:10.37,2013-07-30 12:52:00,
2013-07-30 07:53:00,59.7,58.6,29.00,ESE,112,0.0,0.0,96,0.00,CLR,,0.00,WeatherDisplay:10.37,2013-07-30 12:53:00,
2013-07-30 07:56:00,59.7,58.6,28.97,ESE,112,0.0,0.0,96,0.00,CLR,,0.00,WeatherDisplay:10.37,2013-07-30 12:56:00,
2013-07-30 07:57:00,59.9,58.8,28.97,ESE,112,0.0,0.0,96,0.00,CLR,,0.00,WeatherDisplay:10.37,2013-07-30 12:57:00,
2013-07-30 07:58:00,59.9,58.8,28.97,East,90,1.2,0.0,96,0.00,CLR,,0.00,WeatherDisplay:10.37,2013-07-30 12:58:00,
2013-07-30 08:01:00,59.9,58.8,28.97,ESE,112,2.3,2.3,96,0.00,CLR,,0.00,WeatherDisplay:10.37,2013-07-30 13:01:00,
2013-07-30 08:02:00,60.1,58.9,28.97,East,90,1.2,0.0,96,0.00,CLR,,0.00,WeatherDisplay:10.37,2013-07-30 13:02:00,
2013-07-30 08:04:00,60.1,58.9,28.97,East,90,2.3,2.3,96,0.00,CLR,,0.00,WeatherDisplay:10.37,2013-07-30 13:04:00,
2013-07-30 08:07:00,60.3,59.1,28.97,ESE,112,1.2,0.0,96,0.00,CLR,,0.00,WeatherDisplay:10.37,2013-07-30 13:07:00,
2013-07-30 08:08:00,60.4,59.3,28.97,ESE,112,0.0,0.0,96,0.00,CLR,,0.00,WeatherDisplay:10.37,2013-07-30 13:08:00,
2013-07-30 08:09:00,60.4,59.3,28.97,ESE,112,0.0,0.0,96,0.00,CLR,,0.00,WeatherDisplay:10.37,2013-07-30 13:09:00,
2013-07-30 08:12:00,60.6,59.5,29.00,South,180,0.0,0.0,96,0.00,CLR,,0.00,WeatherDisplay:10.37,2013-07-30 13:12:00,
2013-07-30 08:13:00,60.6,59.5,29.00,South,180,0.0,0.0,96,0.00,CLR,,0.00,WeatherDisplay:10.37,2013-07-30 13:13:00,
2013-07-30 08:14:00,60.6,59.5,29.00,ESE,112,2.4,2.4,96,0.00,CLR,,0.00,WeatherDisplay:10.37,2013-07-30 13:14:00,
2013-07-30 08:17:00,60.8,59.7,29.00,SSE,158,1.2,1.2,96,0.00,CLR,,0.00,WeatherDisplay:10.37,2013-07-30 13:17:00,
2013-07-30 08:18:00,60.8,59.7,29.00,SE,135,1.4,0.0,96,0.00,CLR,,0.00,WeatherDisplay:10.37,2013-07-30 13:18:00,
2013-07-30 08:19:00,61.0,59.8,29.00,ESE,112,3.5,3.5,96,0.00,CLR,,0.00,WeatherDisplay:10.37,2013-07-30 13:19:00,
2013-07-30 08:22:00,61.2,60.0,29.00,ENE,68,1.2,0.0,96,0.00,CLR,,0.00,WeatherDisplay:10.37,2013-07-30 13:22:00,
2013-07-30 08:23:00,61.2,60.0,29.00,ESE,112,0.0,0.0,96,0.00,CLR,,0.00,WeatherDisplay:10.37,2013-07-30 13:23:00,
2013-07-30 08:24:00,61.3,59.9,29.00,East,90,2.3,2.3,95,0.00,CLR,,0.00,WeatherDisplay:10.37,2013-07-30 13:24:00,
2013-07-30 08:28:00,61.5,60.1,28.97,ESE,112,2.3,0.0,95,0.00,CLR,,0.00,WeatherDisplay:10.37,2013-07-30 13:28:00,
2013-07-30 08:29:00,61.5,60.1,28.97,ESE,112,4.6,4.6,95,0.00,CLR,,0.00,WeatherDisplay:10.37,2013-07-30 13:29:00,
2013-07-30 08:33:00,61.7,60.0,28.97,East,90,3.5,3.5,94,0.00,CLR,,0.00,WeatherDisplay:10.37,2013-07-30 13:33:00,
2013-07-30 08:34:00,61.9,60.1,28.97,ESE,112,0.0,0.0,94,0.00,CLR,,0.00,WeatherDisplay:10.37,2013-07-30 13:34:00,
2013-07-30 08:38:00,61.9,60.1,28.97,ESE,112,3.5,3.5,94,0.00,CLR,,0.00,WeatherDisplay:10.37,2013-07-30 13:38:00,
2013-07-30 08:39:00,62.2,60.2,29.00,SE,135,2.3,0.0,93,0.00,CLR,,0.00,WeatherDisplay:10.37,2013-07-30 13:39:00,
2013-07-30 08:43:00,62.4,60.1,29.00,ESE,112,2.3,2.3,92,0.00,CLR,,0.00,WeatherDisplay:10.37,2013-07-30 13:43:00,
2013-07-30 08:44:00,62.4,60.1,29.00,SSW,202,2.3,2.3,92,0.00,CLR,,0.00,WeatherDisplay:10.37,2013-07-30 13:44:00,
2013-07-30 08:45:00,62.4,60.1,29.00,ESE,112,3.5,3.5,92,0.00,CLR,,0.00,WeatherDisplay:10.37,2013-07-30 13:45:00,
2013-07-30 08:48:00,62.8,60.1,29.00,ESE,112,3.5,3.5,91,0.00,CLR,,0.00,WeatherDisplay:10.37,2013-07-30 13:48:00,
2013-07-30 08:49:00,63.0,60.3,29.00,ESE,112,2.3,0.0,91,0.00,CLR,,0.00,WeatherDisplay:10.37,2013-07-30 13:49:00,
2013-07-30 08:50:00,63.0,60.3,29.00,ENE,68,1.2,1.2,91,0.00,CLR,,0.00,WeatherDisplay:10.37,2013-07-30 13:50:00,
2013-07-30 08:53:00,63.0,59.7,29.00,SE,135,3.5,3.5,89,0.00,CLR,,0.00,WeatherDisplay:10.37,2013-07-30 13:53:00,
2013-07-30 08:54:00,63.0,59.7,29.00,ESE,112,3.1,3.1,89,0.00,CLR,,0.00,WeatherDisplay:10.37,2013-07-30 13:54:00,
2013-07-30 08:55:00,63.0,59.7,29.00,ESE,112,2.3,2.3,89,0.00,CLR,,0.00,WeatherDisplay:10.37,2013-07-30 13:55:00,
2013-07-30 08:58:00,63.1,59.8,29.00,South,180,3.5,0.0,89,0.00,CLR,,0.00,WeatherDisplay:10.37,2013-07-30 13:58:00,
2013-07-30 08:59:00,63.1,59.8,29.00,ESE,112,3.5,3.5,89,0.00,CLR,,0.00,WeatherDisplay:10.37,2013-07-30 13:59:00,
2013-07-30 09:00:00,63.1,59.5,29.00,SE,135,1.4,1.4,88,0.00,CLR,,0.00,WeatherDisplay:10.37,2013-07-30 14:00:00,
2013-07-30 09:03:00,63.3,59.4,29.00,South,180,4.6,4.6,87,0.00,CLR,,0.00,WeatherDisplay:10.37,2013-07-30 14:03:00,
2013-07-30 09:04:00,63.3,59.4,29.00,SSE,158,1.2,2.0,87,0.00,CLR,,0.00,WeatherDisplay:10.37,2013-07-30 14:04:00,
2013-07-30 09:05:00,63.3,59.4,29.00,SE,135,3.5,3.5,87,0.00,CLR,,0.00,WeatherDisplay:10.37,2013-07-30 14:05:00,
2013-07-30 09:09:00,63.7,60.1,29.00,SE,135,3.5,3.5,88,0.00,CLR,,0.00,WeatherDisplay:10.37,2013-07-30 14:09:00,
2013-07-30 09:10:00,63.9,59.9,28.97,SE,135,2.3,2.3,87,0.00,CLR,,0.00,WeatherDisplay:10.37,2013-07-30 14:10:00,
2013-07-30 09:14:00,63.9,59.6,28.97,ESE,112,4.6,4.6,86,0.00,CLR,,0.00,WeatherDisplay:10.37,2013-07-30 14:14:00,
2013-07-30 09:15:00,63.9,59.6,28.97,ESE,112,3.5,3.5,86,0.00,CLR,,0.00,WeatherDisplay:10.37,2013-07-30 14:15:00,
2013-07-30 09:19:00,64.2,59.9,28.97,SSE,158,3.5,3.5,86,0.00,CLR,,0.00,WeatherDisplay:10.37,2013-07-30 14:19:00,
2013-07-30 09:20:00,64.2,59.9,28.97,ESE,112,3.5,3.5,86,0.00,CLR,,0.00,WeatherDisplay:10.37,2013-07-30 14:20:00,
2013-07-30 09:21:00,64.8,60.1,28.97,East,90,3.5,3.5,85,0.00,CLR,,0.00,WeatherDisplay:10.37,2013-07-30 14:21:00,
2013-07-30 09:24:00,65.7,61.0,28.97,ENE,68,3.5,3.5,85,0.00,CLR,,0.00,WeatherDisplay:10.37,2013-07-30 14:24:00,
2013-07-30 09:25:00,65.7,61.0,28.97,ENE,68,2.3,2.6,85,0.00,CLR,,0.00,WeatherDisplay:10.37,2013-07-30 14:25:00,
2013-07-30 09:26:00,66.0,61.4,28.97,ESE,112,1.6,1.6,85,0.00,CLR,,0.00,WeatherDisplay:10.37,2013-07-30 14:26:00,
2013-07-30 09:27:00,66.4,61.1,28.97,East,90,2.4,2.4,83,0.00,CLR,,0.00,WeatherDisplay:10.37,2013-07-30 14:27:00,
2013-07-30 09:29:00,66.9,61.2,28.97,East,90,3.5,3.5,82,0.00,CLR,,0.00,WeatherDisplay:10.37,2013-07-30 14:29:00,
2013-07-30 09:30:00,67.8,61.8,28.97,ESE,112,3.5,3.5,81,0.00,CLR,,0.00,WeatherDisplay:10.37,2013-07-30 14:30:00,
2013-07-30 09:31:00,67.8,61.8,28.97,ESE,112,3.5,3.5,81,0.00,CLR,,0.00,WeatherDisplay:10.37,2013-07-30 14:31:00,
2013-07-30 09:32:00,68.4,61.9,28.97,SSE,158,3.5,3.5,80,0.00,CLR,,0.00,WeatherDisplay:10.37,2013-07-30 14:32:00,
2013-07-30 09:34:00,70.0,63.5,28.97,ESE,112,1.2,0.0,80,0.00,CLR,,0.00,WeatherDisplay:10.37,2013-07-30 14:34:00,
2013-07-30 09:36:00,71.1,64.6,28.97,East,90,0.0,0.0,80,0.00,CLR,,0.00,WeatherDisplay:10.37,2013-07-30 14:36:00,
2013-07-30 09:37:00,71.8,65.3,28.97,ENE,68,3.1,3.1,80,0.00,CLR,,0.00,WeatherDisplay:10.37,2013-07-30 14:37:00,
2013-07-30 09:40:00,71.8,63.4,28.97,SW,225,3.5,0.0,75,0.00,CLR,,0.00,WeatherDisplay:10.37,2013-07-30 14:40:00,
2013-07-30 09:42:00,71.8,63.0,28.97,SE,135,1.4,1.4,74,0.00,CLR,,0.00,WeatherDisplay:10.37,2013-07-30 14:42:00,
2013-07-30 09:45:00,71.2,60.5,28.97,SW,225,2.3,2.3,69,0.00,CLR,,0.00,WeatherDisplay:10.37,2013-07-30 14:45:00,
2013-07-30 09:47:00,71.8,61.1,28.97,SSE,158,5.9,5.9,69,0.00,CLR,,0.00,WeatherDisplay:10.37,2013-07-30 14:47:00,
2013-07-30 09:50:00,71.4,59.9,28.97,West,270,4.6,4.6,67,0.00,CLR,,0.00,WeatherDisplay:10.37,2013-07-30 14:50:00,
2013-07-30 09:52:00,72.1,59.7,28.97,SW,225,4.6,4.6,65,0.00,CLR,,0.00,WeatherDisplay:10.37,2013-07-30 14:52:00,
2013-07-30 09:55:00,72.5,59.2,28.97,SSE,158,5.9,5.9,63,0.00,CLR,,0.00,WeatherDisplay:10.37,2013-07-30 14:55:00,
2013-07-30 09:57:00,72.0,57.3,28.97,SSE,158,9.2,9.2,60,0.00,CLR,,0.00,WeatherDisplay:10.37,2013-07-30 14:57:00,
2013-07-30 09:58:00,72.0,57.3,28.97,South,180,9.2,9.2,60,0.00,CLR,,0.00,WeatherDisplay:10.37,2013-07-30 14:58:00,
2013-07-30 10:00:00,71.8,58.1,28.97,SE,135,5.8,5.8,62,0.00,CLR,,0.00,WeatherDisplay:10.37,2013-07-30 15:00:00,
2013-07-30 10:02:00,71.8,58.5,28.97,South,180,2.3,2.3,63,0.00,CLR,,0.00,WeatherDisplay:10.37,2013-07-30 15:02:00,
2013-07-30 10:03:00,72.0,59.1,28.97,WSW,248,1.2,0.0,64,0.00,CLR,,0.00,WeatherDisplay:10.37,2013-07-30 15:03:00,
2013-07-30 10:06:00,73.0,60.1,28.97,ESE,112,3.5,3.5,64,0.00,CLR,,0.00,WeatherDisplay:10.37,2013-07-30 15:06:00,
2013-07-30 10:08:00,73.2,59.9,28.97,ESE,112,3.5,3.5,63,0.00,CLR,,0.00,WeatherDisplay:10.37,2013-07-30 15:08:00,
2013-07-30 10:11:00,73.6,59.8,28.94,SSE,158,3.5,3.5,62,0.00,CLR,,0.00,WeatherDisplay:10.37,2013-07-30 15:11:00,
2013-07-30 10:13:00,73.4,58.7,28.94,ENE,68,8.1,8.1,60,0.00,CLR,,0.00,WeatherDisplay:10.37,2013-07-30 15:13:00,
2013-07-30 10:16:00,73.6,58.8,28.94,NE,45,4.6,4.6,60,0.00,CLR,,0.00,WeatherDisplay:10.37,2013-07-30 15:16:00,
2013-07-30 10:18:00,73.4,58.7,28.94,East,90,5.8,5.8,60,0.00,CLR,,0.00,WeatherDisplay:10.37,2013-07-30 15:18:00,
2013-07-30 10:22:00,72.9,58.2,28.94,ENE,68,4.6,4.6,60,0.00,CLR,,0.00,WeatherDisplay:10.37,2013-07-30 15:22:00,
2013-07-30 10:23:00,72.9,58.2,28.94,ESE,112,3.5,3.5,60,0.00,CLR,,0.00,WeatherDisplay:10.37,2013-07-30 15:23:00,
2013-07-30 10:24:00,72.9,57.2,28.94,SE,135,4.6,4.6,58,0.00,CLR,,0.00,WeatherDisplay:10.37,2013-07-30 15:24:00,
2013-07-30 10:27:00,72.7,57.5,28.97,ESE,112,5.8,5.8,59,0.00,CLR,,0.00,WeatherDisplay:10.37,2013-07-30 15:27:00,
2013-07-30 10:28:00,72.9,57.7,28.97,ENE,68,3.5,3.5,59,0.00,CLR,,0.00,WeatherDisplay:10.37,2013-07-30 15:28:00,
2013-07-30 10:29:00,73.0,57.4,28.97,ESE,112,3.5,3.5,58,0.00,CLR,,0.00,WeatherDisplay:10.37,2013-07-30 15:29:00,
2013-07-30 10:32:00,73.0,57.9,28.97,SSE,158,4.3,4.3,59,0.00,CLR,,0.00,WeatherDisplay:10.37,2013-07-30 15:32:00,
2013-07-30 10:33:00,72.9,57.2,28.97,SSE,158,5.8,5.8,58,0.00,CLR,,0.00,WeatherDisplay:10.37,2013-07-30 15:33:00,
2013-07-30 10:34:00,72.9,57.2,28.97,SSE,158,5.8,5.8,58,0.00,CLR,,0.00,WeatherDisplay:10.37,2013-07-30 15:34:00,
2013-07-30 10:38:00,73.2,58.0,28.97,SE,135,4.6,4.6,59,0.00,CLR,,0.00,WeatherDisplay:10.37,2013-07-30 15:38:00,
2013-07-30 10:39:00,73.2,58.0,28.97,SE,135,3.5,3.5,59,0.00,CLR,,0.00,WeatherDisplay:10.37,2013-07-30 15:39:00,
2013-07-30 10:43:00,73.2,57.6,28.97,East,90,4.7,4.7,58,0.00,CLR,,0.00,WeatherDisplay:10.37,2013-07-30 15:43:00,
2013-07-30 10:44:00,73.2,58.0,28.97,South,180,4.7,4.7,59,0.00,CLR,,0.00,WeatherDisplay:10.37,2013-07-30 15:44:00,
2013-07-30 10:48:00,73.4,57.7,28.97,South,180,4.6,4.6,58,0.00,CLR,,0.00,WeatherDisplay:10.37,2013-07-30 15:48:00,
2013-07-30 10:49:00,73.4,57.2,28.97,South,180,4.6,4.6,57,0.00,CLR,,0.00,WeatherDisplay:10.37,2013-07-30 15:49:00,
2013-07-30 10:50:00,73.4,56.2,28.97,SSE,158,6.9,6.9,55,0.00,CLR,,0.00,WeatherDisplay:10.37,2013-07-30 15:50:00,
2013-07-30 10:53:00,73.4,57.7,28.97,WSW,248,4.7,4.7,58,0.00,CLR,,0.00,WeatherDisplay:10.37,2013-07-30 15:53:00,
2013-07-30 10:54:00,73.2,56.6,28.97,SSE,158,7.6,7.6,56,0.00,CLR,,0.00,WeatherDisplay:10.37,2013-07-30 15:54:00,
2013-07-30 10:55:00,73.2,56.6,28.97,SSW,202,8.1,8.1,56,0.00,CLR,,0.00,WeatherDisplay:10.37,2013-07-30 15:55:00,
2013-07-30 10:58:00,73.8,57.6,28.97,South,180,8.1,8.1,57,0.00,CLR,,0.00,WeatherDisplay:10.37,2013-07-30 15:58:00,
2013-07-30 10:59:00,73.2,56.1,28.97,SSE,158,9.2,9.2,55,0.00,CLR,,0.00,WeatherDisplay:10.37,2013-07-30 15:59:00,
2013-07-30 11:00:00,73.0,56.9,28.97,SSE,158,9.2,9.2,57,0.00,CLR,,0.00,WeatherDisplay:10.37,2013-07-30 16:00:00,
2013-07-30 11:02:00,73.2,56.6,28.97,SSE,158,5.8,5.8,56,0.00,CLR,,0.00,WeatherDisplay:10.37,2013-07-30 16:02:00,
2013-07-30 11:03:00,73.2,56.6,28.97,South,180,6.9,6.9,56,0.00,CLR,,0.00,WeatherDisplay:10.37,2013-07-30 16:03:00,
2013-07-30 11:05:00,73.8,57.6,28.97,WSW,248,4.3,4.3,57,0.00,CLR,,0.00,WeatherDisplay:10.37,2013-07-30 16:05:00,
2013-07-30 11:07:00,73.8,57.6,28.97,South,180,9.2,9.2,57,0.00,CLR,,0.00,WeatherDisplay:10.37,2013-07-30 16:07:00,
2013-07-30 11:08:00,73.4,56.2,28.97,East,90,9.2,9.2,55,0.00,CLR,,0.00,WeatherDisplay:10.37,2013-07-30 16:08:00,
2013-07-30 11:10:00,73.2,57.1,28.97,SSE,167,3.0,9.0,57,0.00,CLR,,0.00,WeatherDisplay:10.37,2013-07-30 16:10:00,
2013-07-30 11:12:00,73.0,56.9,28.97,SSW,202,5.8,5.8,57,0.00,CLR,,0.00,WeatherDisplay:10.37,2013-07-30 16:12:00,
2013-07-30 11:13:00,73.4,57.2,28.97,SSE,158,5.8,5.8,57,0.00,CLR,,0.00,WeatherDisplay:10.37,2013-07-30 16:13:00,
2013-07-30 11:15:00,73.4,57.2,28.97,South,180,6.9,6.9,57,0.00,CLR,,0.00,WeatherDisplay:10.37,2013-07-30 16:15:00,
2013-07-30 11:17:00,74.3,58.6,28.97,South,180,3.5,3.5,58,0.00,CLR,,0.00,WeatherDisplay:10.37,2013-07-30 16:17:00,
2013-07-30 11:19:00,74.7,58.9,28.97,SSW,202,3.5,3.5,58,0.00,CLR,,0.00,WeatherDisplay:10.37,2013-07-30 16:19:00,
2013-07-30 11:20:00,74.7,57.9,28.97,SSW,202,8.1,8.1,56,0.00,CLR,,0.00,WeatherDisplay:10.37,2013-07-30 16:20:00,
2013-07-30 11:21:00,74.5,57.8,28.97,SSE,158,8.1,8.1,56,0.00,CLR,,0.00,WeatherDisplay:10.37,2013-07-30 16:21:00,
2013-07-30 11:23:00,74.3,57.6,28.97,SE,135,5.6,5.6,56,0.00,CLR,,0.00,WeatherDisplay:10.37,2013-07-30 16:23:00,
2013-07-30 11:24:00,74.3,57.1,28.97,SSE,158,5.8,5.8,55,0.00,CLR,,0.00,WeatherDisplay:10.37,2013-07-30 16:24:00,
2013-07-30 11:25:00,74.1,56.9,28.97,SE,135,6.9,6.9,55,0.00,CLR,,0.00,WeatherDisplay:10.37,2013-07-30 16:25:00,
2013-07-30 11:26:00,74.3,57.6,28.97,SE,135,6.9,6.9,56,0.00,CLR,,0.00,WeatherDisplay:10.37,2013-07-30 16:26:00,
2013-07-30 11:29:00,75.7,57.9,28.97,WSW,248,6.9,6.9,54,0.00,CLR,,0.00,WeatherDisplay:10.37,2013-07-30 16:29:00,
2013-07-30 11:30:00,76.6,58.2,28.97,North,0,5.8,5.8,53,0.00,CLR,,0.00,WeatherDisplay:10.37,2013-07-30 16:30:00,
2013-07-30 11:31:00,77.2,57.7,28.97,SSW,202,7.8,7.8,51,0.00,CLR,,0.00,WeatherDisplay:10.37,2013-07-30 16:31:00,
2013-07-30 11:32:00,77.2,57.7,28.97,SE,135,8.1,8.1,51,0.00,CLR,,0.00,WeatherDisplay:10.37,2013-07-30 16:32:00,
2013-07-30 11:34:00,75.7,56.3,28.97,SSE,158,8.5,8.5,51,0.00,CLR,,0.00,WeatherDisplay:10.37,2013-07-30 16:34:00,
2013-07-30 11:35:00,75.0,56.2,28.97,SE,135,8.1,8.1,52,0.00,CLR,,0.00,WeatherDisplay:10.37,2013-07-30 16:35:00,
2013-07-30 11:36:00,74.7,55.9,28.97,SSE,158,5.8,5.8,52,0.00,CLR,,0.00,WeatherDisplay:10.37,2013-07-30 16:36:00,
2013-07-30 11:37:00,74.8,56.0,28.97,SW,225,5.8,5.8,52,0.00,CLR,,0.00,WeatherDisplay:10.37,2013-07-30 16:37:00,
2013-07-30 11:39:00,74.8,54.9,28.97,North,0,5.6,5.6,50,0.00,CLR,,0.00,WeatherDisplay:10.37,2013-07-30 16:39:00,
2013-07-30 11:40:00,74.8,54.9,28.97,SSE,158,5.8,5.8,50,0.00,CLR,,0.00,WeatherDisplay:10.37,2013-07-30 16:40:00,
2013-07-30 11:42:00,75.2,55.8,28.97,SSE,158,5.8,5.8,51,0.00,CLR,,0.00,WeatherDisplay:10.37,2013-07-30 16:42:00,
2013-07-30 11:44:00,74.8,55.5,28.97,SSE,158,2.3,2.3,51,0.00,CLR,,0.00,WeatherDisplay:10.37,2013-07-30 16:44:00,
2013-07-30 11:45:00,75.2,55.8,28.97,South,180,6.2,6.2,51,0.00,CLR,,0.00,WeatherDisplay:10.37,2013-07-30 16:45:00,
2013-07-30 11:47:00,74.8,55.5,28.97,ESE,112,4.3,4.3,51,0.00,CLR,,0.00,WeatherDisplay:10.37,2013-07-30 16:47:00,
2013-07-30 11:48:00,74.8,55.5,28.97,SSW,202,4.6,4.6,51,0.00,CLR,,0.00,WeatherDisplay:10.37,2013-07-30 16:48:00,
2013-07-30 11:50:00,75.9,56.5,28.97,SSW,202,4.6,4.6,51,0.00,CLR,,0.00,WeatherDisplay:10.37,2013-07-30 16:50:00,
2013-07-30 11:51:00,76.6,56.6,28.97,ESE,112,3.5,3.5,50,0.00,CLR,,0.00,WeatherDisplay:10.37,2013-07-30 16:51:00,
2013-07-30 11:53:00,76.8,54.5,28.97,South,180,4.6,4.6,46,0.00,CLR,,0.00,WeatherDisplay:10.37,2013-07-30 16:53:00,
2013-07-30 11:55:00,77.4,55.0,28.97,South,180,4.6,4.6,46,0.00,CLR,,0.00,WeatherDisplay:10.37,2013-07-30 16:55:00,
2013-07-30 11:56:00,77.0,54.0,28.97,SSE,158,4.6,4.6,45,0.00,CLR,,0.00,WeatherDisplay:10.37,2013-07-30 16:56:00,
2013-07-30 11:58:00,77.7,55.3,28.97,South,180,3.5,3.5,46,0.00,CLR,,0.00,WeatherDisplay:10.37,2013-07-30 16:58:00,
2013-07-30 11:59:00,77.7,55.3,28.97,SSE,158,3.5,3.5,46,0.00,CLR,,0.00,WeatherDisplay:10.37,2013-07-30 16:59:00,
2013-07-30 12:00:00,78.6,55.5,28.97,South,180,3.5,3.5,45,0.00,CLR,,0.00,WeatherDisplay:10.37,2013-07-30 17:00:00,
2013-07-30 12:01:00,79.0,55.2,28.97,WSW,248,3.5,3.5,44,0.00,CLR,,0.00,WeatherDisplay:10.37,2013-07-30 17:01:00,
2013-07-30 12:03:00,78.4,53.4,28.97,SE,135,8.5,8.5,42,0.00,CLR,,0.00,WeatherDisplay:10.37,2013-07-30 17:03:00,
2013-07-30 12:04:00,77.7,53.4,28.97,SSE,158,9.2,9.2,43,0.00,CLR,,0.00,WeatherDisplay:10.37,2013-07-30 17:04:00,
2013-07-30 12:05:00,77.4,52.5,28.97,South,180,5.8,5.8,42,0.00,CLR,,0.00,WeatherDisplay:10.37,2013-07-30 17:05:00,
2013-07-30 12:06:00,77.2,52.9,28.97,ESE,112,5.8,5.8,43,0.00,CLR,,0.00,WeatherDisplay:10.37,2013-07-30 17:06:00,
2013-07-30 12:09:00,77.2,52.9,28.97,SSE,158,5.8,5.8,43,0.00,CLR,,0.00,WeatherDisplay:10.37,2013-07-30 17:09:00,
2013-07-30 12:10:00,77.4,53.1,28.97,SE,135,4.3,4.3,43,0.00,CLR,,0.00,WeatherDisplay:10.37,2013-07-30 17:10:00,
2013-07-30 12:12:00,76.8,52.0,28.97,SSE,158,4.6,4.6,42,0.00,CLR,,0.00,WeatherDisplay:10.37,2013-07-30 17:12:00,
2013-07-30 12:14:00,76.5,52.9,28.97,SSE,158,4.6,4.6,44,0.00,CLR,,0.00,WeatherDisplay:10.37,2013-07-30 17:14:00,
2013-07-30 12:15:00,76.5,52.9,28.97,East,90,5.8,5.8,44,0.00,CLR,,0.00,WeatherDisplay:10.37,2013-07-30 17:15:00,
2013-07-30 12:16:00,75.9,52.4,28.97,South,180,5.8,5.8,44,0.00,CLR,,0.00,WeatherDisplay:10.37,2013-07-30 17:16:00,
2013-07-30 12:18:00,76.1,52.0,28.97,South,180,4.6,4.6,43,0.00,CLR,,0.00,WeatherDisplay:10.37,2013-07-30 17:18:00,
2013-07-30 12:19:00,75.9,52.4,28.97,SSE,158,4.9,4.9,44,0.00,CLR,,0.00,WeatherDisplay:10.37,2013-07-30 17:19:00,
2013-07-30 12:20:00,75.9,53.0,28.97,SSE,158,5.8,5.8,45,0.00,CLR,,0.00,WeatherDisplay:10.37,2013-07-30 17:20:00,
2013-07-30 12:21:00,75.9,51.8,28.97,SSE,158,8.1,8.1,43,0.00,CLR,,0.00,WeatherDisplay:10.37,2013-07-30 17:21:00,
2013-07-30 12:23:00,75.9,51.8,28.97,South,180,4.6,4.6,43,0.00,CLR,,0.00,WeatherDisplay:10.37,2013-07-30 17:23:00,
2013-07-30 12:24:00,75.7,52.3,28.97,SSE,158,10.4,10.4,44,0.00,CLR,,0.00,WeatherDisplay:10.37,2013-07-30 17:24:00,
2013-07-30 12:25:00,75.4,51.3,28.94,South,180,11.5,11.5,43,0.00,CLR,,0.00,WeatherDisplay:10.37,2013-07-30 17:25:00,
2013-07-30 12:27:00,75.4,51.9,28.94,South,180,5.9,5.9,44,0.00,CLR,,0.00,WeatherDisplay:10.37,2013-07-30 17:27:00,
2013-07-30 12:28:00,75.4,51.9,28.94,SE,135,8.5,8.5,44,0.00,CLR,,0.00,WeatherDisplay:10.37,2013-07-30 17:28:00,
2013-07-30 12:29:00,75.2,51.2,28.94,SSE,158,8.1,8.1,43,0.00,CLR,,0.00,WeatherDisplay:10.37,2013-07-30 17:29:00,
2013-07-30 12:31:00,75.0,52.2,28.94,South,180,9.2,9.2,45,0.00,CLR,,0.00,WeatherDisplay:10.37,2013-07-30 17:31:00,
2013-07-30 12:33:00,74.7,51.3,28.94,ESE,112,10.4,10.4,44,0.00,CLR,,0.00,WeatherDisplay:10.37,2013-07-30 17:33:00,
2013-07-30 12:34:00,74.8,52.7,28.94,SSE,158,9.7,9.7,46,0.00,CLR,,0.00,WeatherDisplay:10.37,2013-07-30 17:34:00,
2013-07-30 12:35:00,74.8,52.7,28.94,SE,135,12.7,12.7,46,0.00,CLR,,0.00,WeatherDisplay:10.37,2013-07-30 17:35:00,
2013-07-30 12:36:00,74.5,51.7,28.94,SSE,158,12.7,12.7,45,0.00,CLR,,0.00,WeatherDisplay:10.37,2013-07-30 17:36:00,
2013-07-30 12:38:00,74.8,53.3,28.94,WSW,248,4.6,4.6,47,0.00,CLR,,0.00,WeatherDisplay:10.37,2013-07-30 17:38:00,
2013-07-30 12:39:00,74.8,53.3,28.94,SSE,158,4.6,4.6,47,0.00,CLR,,0.00,WeatherDisplay:10.37,2013-07-30 17:39:00,
2013-07-30 12:40:00,75.2,53.6,28.97,WSW,248,4.6,4.6,47,0.00,CLR,,0.00,WeatherDisplay:10.37,2013-07-30 17:40:00,
2013-07-30 12:41:00,75.4,53.7,28.97,SSW,202,5.6,5.6,47,0.00,CLR,,0.00,WeatherDisplay:10.37,2013-07-30 17:41:00,
2013-07-30 12:43:00,75.6,53.9,28.97,South,180,3.5,3.5,47,0.00,CLR,,0.00,WeatherDisplay:10.37,2013-07-30 17:43:00,
2013-07-30 12:44:00,75.6,53.3,28.97,SSW,202,5.8,5.8,46,0.00,CLR,,0.00,WeatherDisplay:10.37,2013-07-30 17:44:00,
2013-07-30 12:45:00,75.6,53.9,28.97,SSE,158,5.6,5.6,47,0.00,CLR,,0.00,WeatherDisplay:10.37,2013-07-30 17:45:00,
2013-07-30 12:46:00,75.4,53.7,28.97,SSW,202,6.9,6.9,47,0.00,CLR,,0.00,WeatherDisplay:10.37,2013-07-30 17:46:00,
2013-07-30 12:47:00,75.4,54.3,28.97,SSE,158,4.6,4.6,48,0.00,CLR,,0.00,WeatherDisplay:10.37,2013-07-30 17:47:00,
2013-07-30 12:48:00,75.2,53.6,28.97,SSE,158,3.5,3.8,47,0.00,CLR,,0.00,WeatherDisplay:10.37,2013-07-30 17:48:00,
2013-07-30 12:49:00,75.2,53.6,28.97,West,270,5.8,5.8,47,0.00,CLR,,0.00,WeatherDisplay:10.37,2013-07-30 17:49:00,
2013-07-30 12:50:00,75.2,53.6,28.97,SW,225,3.5,3.5,47,0.00,CLR,,0.00,WeatherDisplay:10.37,2013-07-30 17:50:00,
2013-07-30 12:51:00,75.7,55.2,28.97,WNW,292,3.5,3.5,49,0.00,CLR,,0.00,WeatherDisplay:10.37,2013-07-30 17:51:00,
2013-07-30 12:52:00,76.5,55.9,28.97,South,180,2.6,2.6,49,0.00,CLR,,0.00,WeatherDisplay:10.37,2013-07-30 17:52:00,
2013-07-30 12:53:00,76.5,55.3,28.97,South,180,3.5,3.5,48,0.00,CLR,,0.00,WeatherDisplay:10.37,2013-07-30 17:53:00,
2013-07-30 12:54:00,76.6,55.5,28.94,South,180,3.5,3.5,48,0.00,CLR,,0.00,WeatherDisplay:10.37,2013-07-30 17:54:00,
2013-07-30 12:55:00,76.6,55.5,28.94,SSW,202,3.1,3.1,48,0.00,CLR,,0.00,WeatherDisplay:10.37,2013-07-30 17:55:00,
2013-07-30 12:56:00,76.6,55.5,28.94,South,180,3.5,3.5,48,0.00,CLR,,0.00,WeatherDisplay:10.37,2013-07-30 17:56:00,
2013-07-30 12:57:00,76.8,55.6,28.94,SW,225,4.6,4.6,48,0.00,CLR,,0.00,WeatherDisplay:10.37,2013-07-30 17:57:00,
2013-07-30 12:59:00,76.8,55.6,28.94,West,270,3.5,3.5,48,0.00,CLR,,0.00,WeatherDisplay:10.37,2013-07-30 17:59:00,
2013-07-30 13:00:00,77.2,56.0,28.94,SE,135,3.5,3.5,48,0.00,CLR,,0.00,WeatherDisplay:10.37,2013-07-30 18:00:00,
2013-07-30 13:01:00,77.5,55.7,28.94,SW,225,2.3,2.3,47,0.00,CLR,,0.00,WeatherDisplay:10.37,2013-07-30 18:01:00,
2013-07-30 13:03:00,77.5,55.7,28.94,SSE,158,5.8,5.8,47,0.00,CLR,,0.00,WeatherDisplay:10.37,2013-07-30 18:03:00,
2013-07-30 13:04:00,77.9,56.0,28.94,North,0,1.2,2.2,47,0.00,CLR,,0.00,WeatherDisplay:10.37,2013-07-30 18:04:00,
2013-07-30 13:05:00,78.3,57.0,28.94,SSE,158,5.8,5.8,48,0.00,CLR,,0.00,WeatherDisplay:10.37,2013-07-30 18:05:00,
2013-07-30 13:07:00,77.2,54.8,28.94,SSE,158,9.2,9.2,46,0.00,CLR,,0.00,WeatherDisplay:10.37,2013-07-30 18:07:00,
2013-07-30 13:08:00,77.0,54.6,28.94,South,180,5.8,5.8,46,0.00,CLR,,0.00,WeatherDisplay:10.37,2013-07-30 18:08:00,
2013-07-30 13:09:00,77.0,55.2,28.94,ESE,112,6.9,6.9,47,0.00,CLR,,0.00,WeatherDisplay:10.37,2013-07-30 18:09:00,
2013-07-30 13:10:00,77.5,55.7,28.94,SW,225,2.3,2.3,47,0.00,CLR,,0.00,WeatherDisplay:10.37,2013-07-30 18:10:00,
2013-07-30 13:11:00,77.9,56.0,28.94,South,180,3.5,3.5,47,0.00,CLR,,0.00,WeatherDisplay:10.37,2013-07-30 18:11:00,
2013-07-30 13:13:00,78.3,55.8,28.94,WSW,248,2.3,2.3,46,0.00,CLR,,0.00,WeatherDisplay:10.37,2013-07-30 18:13:00,
2013-07-30 13:14:00,78.6,56.7,28.94,SSW,202,4.6,4.6,47,0.00,CLR,,0.00,WeatherDisplay:10.37,2013-07-30 18:14:00,
2013-07-30 13:15:00,79.5,56.9,28.94,SSE,158,3.5,3.5,46,0.00,CLR,,0.00,WeatherDisplay:10.37,2013-07-30 18:15:00,
2013-07-30 13:17:00,79.5,56.3,28.94,WSW,248,4.6,4.6,45,0.00,CLR,,0.00,WeatherDisplay:10.37,2013-07-30 18:17:00,
2013-07-30 13:18:00,79.2,56.0,28.94,NW,315,4.6,4.6,45,0.00,CLR,,0.00,WeatherDisplay:10.37,2013-07-30 18:18:00,
2013-07-30 13:19:00,78.1,54.4,28.94,SSW,202,9.2,9.2,44,0.00,CLR,,0.00,WeatherDisplay:10.37,2013-07-30 18:19:00,
2013-07-30 13:21:00,78.3,55.8,28.94,SE,135,10.4,10.4,46,0.00,CLR,,0.00,WeatherDisplay:10.37,2013-07-30 18:21:00,
2013-07-30 13:23:00,78.4,55.3,28.94,SSE,158,9.8,9.8,45,0.00,CLR,,0.00,WeatherDisplay:10.37,2013-07-30 18:23:00,
2013-07-30 13:24:00,77.7,54.1,28.91,East,90,9.2,9.2,44,0.00,CLR,,0.00,WeatherDisplay:10.37,2013-07-30 18:24:00,
2013-07-30 13:26:00,77.9,56.0,28.91,SSW,202,4.6,4.6,47,0.00,CLR,,0.00,WeatherDisplay:10.37,2013-07-30 18:26:00,
2013-07-30 13:28:00,78.1,55.6,28.91,SE,135,6.2,6.2,46,0.00,CLR,,0.00,WeatherDisplay:10.37,2013-07-30 18:28:00,
2013-07-30 13:29:00,77.9,54.8,28.91,ESE,112,5.8,5.8,45,0.00,CLR,,0.00,WeatherDisplay:10.37,2013-07-30 18:29:00,
2013-07-30 13:30:00,78.3,55.8,28.91,SW,225,4.6,4.6,46,0.00,CLR,,0.00,WeatherDisplay:10.37,2013-07-30 18:30:00,
2013-07-30 13:31:00,78.8,56.3,28.91,SE,135,3.5,3.5,46,0.00,CLR,,0.00,WeatherDisplay:10.37,2013-07-30 18:31:00,
2013-07-30 13:33:00,78.3,55.2,28.91,South,180,5.9,5.9,45,0.00,CLR,,0.00,WeatherDisplay:10.37,2013-07-30 18:33:00,
2013-07-30 13:34:00,77.9,55.5,28.91,WSW,248,5.8,5.8,46,0.00,CLR,,0.00,WeatherDisplay:10.37,2013-07-30 18:34:00,
2013-07-30 13:35:00,78.1,55.6,28.91,SSW,202,3.3,3.6,46,0.00,CLR,,0.00,WeatherDisplay:10.37,2013-07-30 18:35:00,
2013-07-30 13:36:00,77.7,54.7,28.91,ESE,112,7.8,7.8,45,0.00,CLR,,0.00,WeatherDisplay:10.37,2013-07-30 18:36:00,
2013-07-30 13:38:00,77.7,55.3,28.91,SSE,158,8.1,8.1,46,0.00,CLR,,0.00,WeatherDisplay:10.37,2013-07-30 18:38:00,
2013-07-30 13:39:00,77.7,55.3,28.91,ESE,112,8.1,8.1,46,0.00,CLR,,0.00,WeatherDisplay:10.37,2013-07-30 18:39:00,
2013-07-30 13:40:00,77.7,55.3,28.91,South,180,3.5,3.5,46,0.00,CLR,,0.00,WeatherDisplay:10.37,2013-07-30 18:40:00,
2013-07-30 13:42:00,78.3,56.4,28.91,North,0,3.5,3.5,47,0.00,CLR,,0.00,WeatherDisplay:10.37,2013-07-30 18:42:00,
2013-07-30 13:43:00,78.4,55.9,28.91,SE,135,5.9,5.9,46,0.00,CLR,,0.00,WeatherDisplay:10.37,2013-07-30 18:43:00,
2013-07-30 13:44:00,78.4,55.9,28.91,SSE,158,5.8,5.8,46,0.00,CLR,,0.00,WeatherDisplay:10.37,2013-07-30 18:44:00,
2013-07-30 13:45:00,77.9,55.5,28.91,ESE,112,9.2,9.2,46,0.00,CLR,,0.00,WeatherDisplay:10.37,2013-07-30 18:45:00,
2013-07-30 13:47:00,78.1,55.6,28.91,SE,135,2.6,2.6,46,0.00,CLR,,0.00,WeatherDisplay:10.37,2013-07-30 18:47:00,
2013-07-30 13:49:00,78.3,55.8,28.91,ESE,112,4.3,4.3,46,0.00,CLR,,0.00,WeatherDisplay:10.37,2013-07-30 18:49:00,
2013-07-30 13:50:00,78.4,55.3,28.91,SE,135,5.8,5.8,45,0.00,CLR,,0.00,WeatherDisplay:10.37,2013-07-30 18:50:00,
2013-07-30 13:52:00,78.6,55.5,28.91,East,90,5.8,5.8,45,0.00,CLR,,0.00,WeatherDisplay:10.37,2013-07-30 18:52:00,
2013-07-30 13:54:00,79.9,56.6,28.91,NW,315,2.3,2.3,45,0.00,CLR,,0.00,WeatherDisplay:10.37,2013-07-30 18:54:00,
2013-07-30 13:55:00,79.5,55.7,28.88,South,180,5.9,5.9,44,0.00,CLR,,0.00,WeatherDisplay:10.37,2013-07-30 18:55:00,
2013-07-30 13:57:00,79.3,54.3,28.88,East,90,6.9,6.9,42,0.00,CLR,,0.00,WeatherDisplay:10.37,2013-07-30 18:57:00,
2013-07-30 13:59:00,79.3,54.9,28.88,South,180,5.8,5.8,43,0.00,CLR,,0.00,WeatherDisplay:10.37,2013-07-30 18:59:00,
2013-07-30 14:00:00,79.3,54.9,28.88,South,180,10.7,10.7,43,0.00,CLR,,0.00,WeatherDisplay:10.37,2013-07-30 19:00:00,
2013-07-30 14:02:00,79.3,55.5,28.88,SSE,158,2.3,2.3,44,0.00,CLR,,0.00,WeatherDisplay:10.37,2013-07-30 19:02:00,
2013-07-30 14:05:00,80.2,56.3,28.88,South,180,5.8,5.8,44,0.00,CLR,,0.00,WeatherDisplay:10.37,2013-07-30 19:05:00,
2013-07-30 14:07:00,79.3,54.9,28.88,SW,225,4.6,4.7,43,0.00,CLR,,0.00,WeatherDisplay:10.37,2013-07-30 19:07:00,
2013-07-30 14:10:00,80.1,54.2,28.89,South,191,3.0,7.0,41,0.00,CLR,,0.00,WeatherDisplay:10.37,2013-07-30 19:10:00,
2013-07-30 14:12:00,79.7,53.9,28.91,South,180,6.9,6.9,41,0.00,CLR,,0.00,WeatherDisplay:10.37,2013-07-30 19:12:00,
2013-07-30 14:13:00,79.7,53.9,28.91,South,180,6.9,6.9,41,0.00,CLR,,0.00,WeatherDisplay:10.37,2013-07-30 19:13:00,
2013-07-30 14:15:00,79.7,53.9,28.91,South,180,4.6,4.6,41,0.00,CLR,,0.00,WeatherDisplay:10.37,2013-07-30 19:15:00,
2013-07-30 14:18:00,80.1,54.2,28.91,West,270,3.6,3.6,41,0.00,CLR,,0.00,WeatherDisplay:10.37,2013-07-30 19:18:00,
2013-07-30 14:20:00,80.2,54.4,28.91,WSW,248,3.5,3.5,41,0.00,CLR,,0.00,WeatherDisplay:10.37,2013-07-30 19:20:00,
2013-07-30 14:21:00,80.8,54.9,28.91,NW,315,3.5,3.5,41,0.00,CLR,,0.00,WeatherDisplay:10.37,2013-07-30 19:21:00,
2013-07-30 14:23:00,81.1,55.2,28.91,SSE,158,6.9,6.9,41,0.00,CLR,,0.00,WeatherDisplay:10.37,2013-07-30 19:23:00,
2013-07-30 14:25:00,82.0,56.0,28.88,SE,135,2.3,2.3,41,0.00,CLR,,0.00,WeatherDisplay:10.37,2013-07-30 19:25:00,
2013-07-30 14:26:00,82.0,56.0,28.88,WSW,248,2.9,2.9,41,0.00,CLR,,0.00,WeatherDisplay:10.37,2013-07-30 19:26:00,
2013-07-30 14:28:00,82.0,56.0,28.88,WSW,248,4.6,4.6,41,0.00,CLR,,0.00,WeatherDisplay:10.37,2013-07-30 19:28:00,
2013-07-30 14:30:00,82.0,54.6,28.88,SSW,202,3.5,3.5,39,0.00,CLR,,0.00,WeatherDisplay:10.37,2013-07-30 19:30:00,
2013-07-30 14:31:00,81.7,54.3,28.88,SW,225,6.9,6.9,39,0.00,CLR,,0.00,WeatherDisplay:10.37,2013-07-30 19:31:00,
2013-07-30 14:33:00,82.0,53.9,28.88,SSE,158,3.5,3.5,38,0.00,CLR,,0.00,WeatherDisplay:10.37,2013-07-30 19:33:00,
2013-07-30 14:34:00,82.0,53.9,28.88,South,180,3.5,3.5,38,0.00,CLR,,0.00,WeatherDisplay:10.37,2013-07-30 19:34:00,
2013-07-30 14:35:00,82.2,54.1,28.88,NNW,338,4.6,4.6,38,0.00,CLR,,0.00,WeatherDisplay:10.37,2013-07-30 19:35:00,
2013-07-30 14:37:00,82.8,55.3,28.88,SE,135,7.8,7.8,39,0.00,CLR,,0.00,WeatherDisplay:10.37,2013-07-30 19:37:00,
2013-07-30 14:38:00,82.8,55.3,28.88,WSW,248,11.5,11.5,39,0.00,CLR,,0.00,WeatherDisplay:10.37,2013-07-30 19:38:00,
2013-07-30 14:39:00,82.8,55.3,28.88,SSE,158,6.9,6.9,39,0.00,CLR,,0.00,WeatherDisplay:10.37,2013-07-30 19:39:00,
2013-07-30 14:40:00,82.8,55.3,28.91,West,270,6.9,6.9,39,0.00,CLR,,0.00,WeatherDisplay:10.37,2013-07-30 19:40:00,
2013-07-30 14:43:00,81.5,54.2,28.91,SSE,158,4.6,4.6,39,0.00,CLR,,0.00,WeatherDisplay:10.37,2013-07-30 19:43:00,
2013-07-30 14:44:00,80.1,52.9,28.91,SSE,158,11.5,11.5,39,0.00,CLR,,0.00,WeatherDisplay:10.37,2013-07-30 19:44:00,
2013-07-30 14:46:00,79.5,51.7,28.91,WSW,248,5.8,5.8,38,0.00,CLR,,0.00,WeatherDisplay:10.37,2013-07-30 19:46:00,
2013-07-30 14:48:00,79.9,52.7,28.91,SSW,202,5.8,5.8,39,0.00,CLR,,0.00,WeatherDisplay:10.37,2013-07-30 19:48:00,
2013-07-30 14:49:00,80.4,53.9,28.91,SSE,158,2.3,2.3,40,0.00,CLR,,0.00,WeatherDisplay:10.37,2013-07-30 19:49:00,
2013-07-30 14:51:00,81.3,54.7,28.91,SSE,158,4.6,4.6,40,0.00,CLR,,0.00,WeatherDisplay:10.37,2013-07-30 19:51:00,
2013-07-30 14:53:00,81.7,55.0,28.91,SSW,202,5.8,5.8,40,0.00,CLR,,0.00,WeatherDisplay:10.37,2013-07-30 19:53:00,
2013-07-30 14:54:00,81.7,54.3,28.91,SW,225,2.3,2.6,39,0.00,CLR,,0.00,WeatherDisplay:10.37,2013-07-30 19:54:00,
2013-07-30 14:55:00,81.9,55.2,28.91,SSE,158,3.6,3.6,40,0.00,CLR,,0.00,WeatherDisplay:10.37,2013-07-30 19:55:00,
2013-07-30 14:56:00,81.7,55.0,28.91,SE,135,7.1,7.1,40,0.00,CLR,,0.00,WeatherDisplay:10.37,2013-07-30 19:56:00,
2013-07-30 14:58:00,81.1,53.8,28.91,SE,135,9.2,9.2,39,0.00,CLR,,0.00,WeatherDisplay:10.37,2013-07-30 19:58:00,
2013-07-30 14:59:00,80.6,53.4,28.91,South,180,8.1,8.1,39,0.00,CLR,,0.00,WeatherDisplay:10.37,2013-07-30 19:59:00,
2013-07-30 15:00:00,80.6,53.4,28.91,SW,225,8.1,8.1,39,0.00,CLR,,0.00,WeatherDisplay:10.37,2013-07-30 20:00:00,
2013-07-30 15:01:00,81.0,54.4,28.91,SSE,158,3.5,3.5,40,0.00,CLR,,0.00,WeatherDisplay:10.37,2013-07-30 20:01:00,
2013-07-30 15:03:00,81.5,54.8,28.91,SSE,158,2.3,2.3,40,0.00,CLR,,0.00,WeatherDisplay:10.37,2013-07-30 20:03:00,
2013-07-30 15:04:00,81.5,54.8,28.91,SE,135,4.6,4.6,40,0.00,CLR,,0.00,WeatherDisplay:10.37,2013-07-30 20:04:00,
2013-07-30 15:05:00,81.4,54.8,28.91,South,184,2.0,6.0,40,0.00,CLR,,0.00,WeatherDisplay:10.37,2013-07-30 20:05:00,
2013-07-30 15:06:00,81.3,54.0,28.91,SSW,202,5.8,5.8,39,0.00,CLR,,0.00,WeatherDisplay:10.37,2013-07-30 20:06:00,
2013-07-30 15:07:00,80.8,52.8,28.91,SSE,158,4.9,4.9,38,0.00,CLR,,0.00,WeatherDisplay:10.37,2013-07-30 20:07:00,
2013-07-30 15:13:00,79.7,53.9,28.88,SSE,158,10.4,10.4,41,0.00,CLR,,0.00,WeatherDisplay:10.37,2013-07-30 20:13:00,
2013-07-30 15:14:00,79.7,53.9,28.88,SSW,202,9.4,9.4,41,0.00,CLR,,0.00,WeatherDisplay:10.37,2013-07-30 20:14:00,
2013-07-30 15:18:00,79.0,52.6,28.88,SSE,158,10.4,10.4,40,0.00,CLR,,0.00,WeatherDisplay:10.37,2013-07-30 20:18:00,
2013-07-30 15:19:00,79.0,52.6,28.88,South,180,9.2,9.2,40,0.00,CLR,,0.00,WeatherDisplay:10.37,2013-07-30 20:19:00,
2013-07-30 15:24:00,78.8,53.1,28.88,SSE,158,7.6,7.6,41,0.00,CLR,,0.00,WeatherDisplay:10.37,2013-07-30 20:24:00,
2013-07-30 15:29:00,78.8,53.8,28.88,South,180,6.9,6.9,42,0.00,CLR,,0.00,WeatherDisplay:10.37,2013-07-30 20:29:00,
2013-07-30 15:34:00,79.0,51.9,28.88,SE,135,9.2,9.2,39,0.00,CLR,,0.00,WeatherDisplay:10.37,2013-07-30 20:34:00,
2013-07-30 15:35:00,79.2,52.8,28.88,SSW,202,5.8,5.8,40,0.00,CLR,,0.00,WeatherDisplay:10.37,2013-07-30 20:35:00,
2013-07-30 15:39:00,80.4,53.9,28.88,SW,225,4.6,4.6,40,0.00,CLR,,0.00,WeatherDisplay:10.37,2013-07-30 20:39:00,
2013-07-30 15:40:00,80.6,54.0,28.88,ESE,112,8.7,8.7,40,0.00,CLR,,0.00,WeatherDisplay:10.37,2013-07-30 20:40:00,
2013-07-30 15:44:00,79.9,53.4,28.88,SSE,158,4.7,4.7,40,0.00,CLR,,0.00,WeatherDisplay:10.37,2013-07-30 20:44:00,
2013-07-30 15:45:00,79.3,52.9,28.88,NE,45,6.9,6.9,40,0.00,CLR,,0.00,WeatherDisplay:10.37,2013-07-30 20:45:00,
2013-07-30 15:49:00,78.6,52.3,28.88,SSE,158,8.1,8.1,40,0.00,CLR,,0.00,WeatherDisplay:10.37,2013-07-30 20:49:00,
2013-07-30 15:50:00,78.4,52.8,28.88,SSE,158,7.8,7.8,41,0.00,CLR,,0.00,WeatherDisplay:10.37,2013-07-30 20:50:00,
2013-07-30 15:54:00,77.9,53.0,28.88,SE,135,4.3,4.3,42,0.00,CLR,,0.00,WeatherDisplay:10.37,2013-07-30 20:54:00,
2013-07-30 15:55:00,77.9,53.0,28.88,SSE,149,2.0,8.0,42,0.00,CLR,,0.00,WeatherDisplay:10.37,2013-07-30 20:55:00,
2013-07-30 15:56:00,77.9,53.0,28.88,South,180,6.9,6.9,42,0.00,CLR,,0.00,WeatherDisplay:10.37,2013-07-30 20:56:00,
2013-07-30 15:59:00,77.9,53.0,28.88,SSE,158,8.1,8.1,42,0.00,CLR,,0.00,WeatherDisplay:10.37,2013-07-30 20:59:00,
2013-07-30 16:00:00,77.8,52.9,28.88,SSE,160,6.0,11.0,42,0.00,CLR,,0.00,WeatherDisplay:10.37,2013-07-30 21:00:00,
2013-07-30 16:01:00,78.4,53.4,28.88,SSE,158,3.5,3.5,42,0.00,CLR,,0.00,WeatherDisplay:10.37,2013-07-30 21:01:00,
2013-07-30 16:04:00,78.4,53.4,28.88,SW,225,4.6,4.6,42,0.00,CLR,,0.00,WeatherDisplay:10.37,2013-07-30 21:04:00,
2013-07-30 16:05:00,78.8,53.1,28.88,SSW,202,3.5,3.5,41,0.00,CLR,,0.00,WeatherDisplay:10.37,2013-07-30 21:05:00,
2013-07-30 16:06:00,79.0,53.3,28.88,South,180,8.1,8.1,41,0.00,CLR,,0.00,WeatherDisplay:10.37,2013-07-30 21:06:00,
2013-07-30 16:09:00,78.6,52.9,28.88,NE,45,5.8,5.8,41,0.00,CLR,,0.00,WeatherDisplay:10.37,2013-07-30 21:09:00,
2013-07-30 16:10:00,78.8,53.1,28.88,SSE,158,10.5,10.5,41,0.00,CLR,,0.00,WeatherDisplay:10.37,2013-07-30 21:10:00,
2013-07-30 16:11:00,78.4,52.8,28.88,South,180,10.4,10.4,41,0.00,CLR,,0.00,WeatherDisplay:10.37,2013-07-30 21:11:00,
2013-07-30 16:14:00,79.7,54.6,28.88,South,180,2.3,2.3,42,0.00,CLR,,0.00,WeatherDisplay:10.37,2013-07-30 21:14:00,
2013-07-30 16:15:00,79.7,54.6,28.88,SSE,158,3.1,3.3,42,0.00,CLR,,0.00,WeatherDisplay:10.37,2013-07-30 21:15:00,
2013-07-30 16:16:00,79.9,54.7,28.88,SSW,202,6.9,6.9,42,0.00,CLR,,0.00,WeatherDisplay:10.37,2013-07-30 21:16:00,
2013-07-30 16:17:00,79.7,53.9,28.88,NW,315,4.6,4.6,41,0.00,CLR,,0.00,WeatherDisplay:10.37,2013-07-30 21:17:00,
2013-07-30 16:19:00,79.9,54.1,28.88,SSE,158,10.5,10.5,41,0.00,CLR,,0.00,WeatherDisplay:10.37,2013-07-30 21:19:00,
2013-07-30 16:20:00,79.9,54.1,28.88,SSW,202,10.4,10.4,41,0.00,CLR,,0.00,WeatherDisplay:10.37,2013-07-30 21:20:00,
2013-07-30 16:21:00,79.2,53.4,28.88,South,180,5.8,5.8,41,0.00,CLR,,0.00,WeatherDisplay:10.37,2013-07-30 21:21:00,
2013-07-30 16:23:00,78.4,53.4,28.88,SSE,158,9.2,9.2,42,0.00,CLR,,0.00,WeatherDisplay:10.37,2013-07-30 21:23:00,
2013-07-30 16:25:00,77.7,53.4,28.88,South,180,11.5,11.5,43,0.00,CLR,,0.00,WeatherDisplay:10.37,2013-07-30 21:25:00,
2013-07-30 16:27:00,77.5,53.3,28.88,SE,135,9.2,9.2,43,0.00,CLR,,0.00,WeatherDisplay:10.37,2013-07-30 21:27:00,
2013-07-30 16:28:00,77.4,53.7,28.88,SSE,158,8.1,8.1,44,0.00,CLR,,0.00,WeatherDisplay:10.37,2013-07-30 21:28:00,
2013-07-30 16:30:00,77.4,54.4,28.88,SSE,158,7.1,7.1,45,0.00,CLR,,0.00,WeatherDisplay:10.37,2013-07-30 21:30:00,
2013-07-30 16:32:00,77.2,54.2,28.88,South,180,6.9,6.9,45,0.00,CLR,,0.00,WeatherDisplay:10.37,2013-07-30 21:32:00,
2013-07-30 16:33:00,77.4,54.4,28.88,SSE,158,4.6,4.6,45,0.00,CLR,,0.00,WeatherDisplay:10.37,2013-07-30 21:33:00,
2013-07-30 16:35:00,76.6,53.1,28.88,SSE,158,10.4,10.4,44,0.00,CLR,,0.00,WeatherDisplay:10.37,2013-07-30 21:35:00,
2013-07-30 16:37:00,76.1,53.2,28.88,South,180,15.0,15.0,45,0.00,CLR,,0.00,WeatherDisplay:10.37,2013-07-30 21:37:00,
2013-07-30 16:38:00,76.1,53.2,28.88,SSE,158,10.4,10.4,45,0.00,CLR,,0.00,WeatherDisplay:10.37,2013-07-30 21:38:00,
2013-07-30 16:40:00,75.9,53.6,28.88,SSE,158,9.2,9.2,46,0.00,CLR,,0.00,WeatherDisplay:10.37,2013-07-30 21:40:00,
2013-07-30 16:42:00,75.9,53.0,28.88,SSE,158,10.4,10.4,45,0.00,CLR,,0.00,WeatherDisplay:10.37,2013-07-30 21:42:00,
2013-07-30 16:43:00,75.9,53.0,28.88,SE,135,5.8,5.8,45,0.00,CLR,,0.00,WeatherDisplay:10.37,2013-07-30 21:43:00,
2013-07-30 16:45:00,76.1,53.8,28.88,South,180,5.8,5.8,46,0.00,CLR,,0.00,WeatherDisplay:10.37,2013-07-30 21:45:00,
2013-07-30 16:46:00,76.1,53.8,28.88,SSE,158,9.2,9.2,46,0.00,CLR,,0.00,WeatherDisplay:10.37,2013-07-30 21:46:00,
2013-07-30 16:48:00,76.1,53.2,28.88,SE,135,5.8,5.8,45,0.00,CLR,,0.00,WeatherDisplay:10.37,2013-07-30 21:48:00,
2013-07-30 16:50:00,75.9,52.4,28.88,SSE,158,8.1,8.1,44,0.00,CLR,,0.00,WeatherDisplay:10.37,2013-07-30 21:50:00,
2013-07-30 16:51:00,75.9,53.0,28.88,South,180,8.1,8.1,45,0.00,CLR,,0.00,WeatherDisplay:10.37,2013-07-30 21:51:00,
2013-07-30 16:53:00,76.1,53.2,28.88,SE,135,6.4,6.4,45,0.00,CLR,,0.00,WeatherDisplay:10.37,2013-07-30 21:53:00,
2013-07-30 16:55:00,75.9,53.6,28.88,South,180,5.8,5.8,46,0.00,CLR,,0.00,WeatherDisplay:10.37,2013-07-30 21:55:00,
2013-07-30 16:56:00,75.9,53.6,28.88,SE,135,3.5,3.5,46,0.00,CLR,,0.00,WeatherDisplay:10.37,2013-07-30 21:56:00,
2013-07-30 16:58:00,75.7,52.9,28.88,SE,135,8.1,8.1,45,0.00,CLR,,0.00,WeatherDisplay:10.37,2013-07-30 21:58:00,
2013-07-30 16:59:00,75.7,53.5,28.88,SSE,158,9.2,9.2,46,0.00,CLR,,0.00,WeatherDisplay:10.37,2013-07-30 21:59:00,
2013-07-30 17:00:00,75.6,53.3,28.88,SW,225,11.5,11.5,46,0.00,CLR,,0.00,WeatherDisplay:10.37,2013-07-30 22:00:00,
2013-07-30 17:02:00,75.6,52.7,28.88,SSE,158,10.4,10.4,45,0.00,CLR,,0.00,WeatherDisplay:10.37,2013-07-30 22:02:00,
2013-07-30 17:03:00,75.6,52.7,28.88,South,180,10.4,10.4,45,0.00,CLR,,0.00,WeatherDisplay:10.37,2013-07-30 22:03:00,
2013-07-30 17:04:00,75.6,52.7,28.88,SE,135,5.8,5.8,45,0.00,CLR,,0.00,WeatherDisplay:10.37,2013-07-30 22:04:00,
2013-07-30 17:05:00,75.6,52.7,28.88,SSE,158,9.7,9.7,45,0.00,CLR,,0.00,WeatherDisplay:10.37,2013-07-30 22:05:00,
2013-07-30 17:07:00,75.4,52.6,28.88,SSE,158,9.2,9.2,45,0.00,CLR,,0.00,WeatherDisplay:10.37,2013-07-30 22:07:00,
2013-07-30 17:08:00,75.6,52.7,28.88,SSE,158,10.2,10.2,45,0.00,CLR,,0.00,WeatherDisplay:10.37,2013-07-30 22:08:00,
2013-07-30 17:09:00,75.6,52.7,28.88,South,180,11.5,11.5,45,0.00,CLR,,0.00,WeatherDisplay:10.37,2013-07-30 22:09:00,
2013-07-30 17:10:00,75.6,52.7,28.88,SW,225,11.5,11.5,45,0.00,CLR,,0.00,WeatherDisplay:10.37,2013-07-30 22:10:00,
2013-07-30 17:12:00,75.4,53.2,28.88,SSE,158,8.1,8.1,46,0.00,CLR,,0.00,WeatherDisplay:10.37,2013-07-30 22:12:00,
2013-07-30 17:13:00,75.4,53.2,28.88,South,180,8.1,8.1,46,0.00,CLR,,0.00,WeatherDisplay:10.37,2013-07-30 22:13:00,
2013-07-30 17:14:00,75.6,53.9,28.88,South,180,6.9,6.9,47,0.00,CLR,,0.00,WeatherDisplay:10.37,2013-07-30 22:14:00,
2013-07-30 17:15:00,75.6,53.9,28.88,SSE,158,6.9,6.9,47,0.00,CLR,,0.00,WeatherDisplay:10.37,2013-07-30 22:15:00,
2013-07-30 17:16:00,75.4,53.2,28.88,SSE,158,6.9,6.9,46,0.00,CLR,,0.00,WeatherDisplay:10.37,2013-07-30 22:16:00,
2013-07-30 17:18:00,75.4,53.7,28.88,SW,225,8.1,8.1,47,0.00,CLR,,0.00,WeatherDisplay:10.37,2013-07-30 22:18:00,
2013-07-30 17:19:00,75.4,53.2,28.88,South,180,6.7,6.7,46,0.00,CLR,,0.00,WeatherDisplay:10.37,2013-07-30 22:19:00,
2013-07-30 17:20:00,75.4,53.2,28.88,SSE,158,7.6,7.6,46,0.00,CLR,,0.00,WeatherDisplay:10.37,2013-07-30 22:20:00,
2013-07-30 17:21:00,75.4,53.2,28.88,South,180,8.5,8.5,46,0.00,CLR,,0.00,WeatherDisplay:10.37,2013-07-30 22:21:00,
2013-07-30 17:23:00,75.6,53.3,28.88,SW,225,5.9,5.9,46,0.00,CLR,,0.00,WeatherDisplay:10.37,2013-07-30 22:23:00,
2013-07-30 17:24:00,75.6,53.3,28.88,SSE,158,5.8,5.8,46,0.00,CLR,,0.00,WeatherDisplay:10.37,2013-07-30 22:24:00,
2013-07-30 17:25:00,75.6,53.9,28.88,ESE,112,8.1,8.1,47,0.00,CLR,,0.00,WeatherDisplay:10.37,2013-07-30 22:25:00,
2013-07-30 17:27:00,75.4,53.7,28.88,South,180,8.1,8.1,47,0.00,CLR,,0.00,WeatherDisplay:10.37,2013-07-30 22:27:00,
2013-07-30 17:28:00,75.4,53.7,28.88,SE,135,6.9,6.9,47,0.00,CLR,,0.00,WeatherDisplay:10.37,2013-07-30 22:28:00,
2013-07-30 17:29:00,75.2,53.0,28.88,South,180,6.9,6.9,46,0.00,CLR,,0.00,WeatherDisplay:10.37,2013-07-30 22:29:00,
2013-07-30 17:30:00,75.2,53.6,28.88,NNW,338,6.9,6.9,47,0.00,CLR,,0.00,WeatherDisplay:10.37,2013-07-30 22:30:00,
2013-07-30 17:32:00,75.2,53.6,28.88,South,180,5.8,5.8,47,0.00,CLR,,0.00,WeatherDisplay:10.37,2013-07-30 22:32:00,
2013-07-30 17:33:00,75.0,54.0,28.88,South,180,5.8,5.8,48,0.00,CLR,,0.00,WeatherDisplay:10.37,2013-07-30 22:33:00,
2013-07-30 17:34:00,75.0,54.0,28.88,SSE,158,5.8,5.8,48,0.00,CLR,,0.00,WeatherDisplay:10.37,2013-07-30 22:34:00,
2013-07-30 17:35:00,74.9,53.9,28.88,South,172,5.0,8.0,48,0.00,CLR,,0.00,WeatherDisplay:10.37,2013-07-30 22:35:00,
2013-07-30 17:37:00,75.0,54.6,28.88,WNW,292,2.3,2.3,49,0.00,CLR,,0.00,WeatherDisplay:10.37,2013-07-30 22:37:00,
2013-07-30 17:38:00,75.2,54.7,28.88,South,180,5.8,5.8,49,0.00,CLR,,0.00,WeatherDisplay:10.37,2013-07-30 22:38:00,
2013-07-30 17:39:00,75.2,54.7,28.88,South,180,5.8,5.8,49,0.00,CLR,,0.00,WeatherDisplay:10.37,2013-07-30 22:39:00,
2013-07-30 17:40:00,75.2,54.7,28.88,SE,135,5.8,5.8,49,0.00,CLR,,0.00,WeatherDisplay:10.37,2013-07-30 22:40:00,
2013-07-30 17:41:00,75.0,55.1,28.88,SSE,158,5.6,5.6,50,0.00,CLR,,0.00,WeatherDisplay:10.37,2013-07-30 22:41:00,
2013-07-30 17:42:00,75.0,55.1,28.88,SE,135,6.9,6.9,50,0.00,CLR,,0.00,WeatherDisplay:10.37,2013-07-30 22:42:00,
2013-07-30 17:43:00,74.8,54.4,28.88,South,180,5.8,5.8,49,0.00,CLR,,0.00,WeatherDisplay:10.37,2013-07-30 22:43:00,
2013-07-30 17:44:00,74.8,54.9,28.88,SSE,158,10.4,10.4,50,0.00,CLR,,0.00,WeatherDisplay:10.37,2013-07-30 22:44:00,
2013-07-30 17:45:00,74.8,54.9,28.88,WSW,248,6.9,6.9,50,0.00,CLR,,0.00,WeatherDisplay:10.37,2013-07-30 22:45:00,
2013-07-30 17:46:00,74.8,54.9,28.88,South,180,3.5,3.8,50,0.00,CLR,,0.00,WeatherDisplay:10.37,2013-07-30 22:46:00,
2013-07-30 17:48:00,74.8,55.5,28.88,SE,135,5.8,5.8,51,0.00,CLR,,0.00,WeatherDisplay:10.37,2013-07-30 22:48:00,
2013-07-30 17:49:00,74.8,56.0,28.88,South,180,4.9,4.9,52,0.00,CLR,,0.00,WeatherDisplay:10.37,2013-07-30 22:49:00,
2013-07-30 17:50:00,74.8,56.0,28.88,ESE,112,5.8,5.8,52,0.00,CLR,,0.00,WeatherDisplay:10.37,2013-07-30 22:50:00,
2013-07-30 17:51:00,74.8,56.0,28.88,South,180,4.6,4.6,52,0.00,CLR,,0.00,WeatherDisplay:10.37,2013-07-30 22:51:00,
2013-07-30 17:53:00,74.8,56.0,28.88,SSW,202,4.9,4.9,52,0.00,CLR,,0.00,WeatherDisplay:10.37,2013-07-30 22:53:00,
2013-07-30 17:54:00,74.8,56.0,28.88,SSE,158,4.6,4.6,52,0.00,CLR,,0.00,WeatherDisplay:10.37,2013-07-30 22:54:00,
2013-07-30 17:55:00,75.0,56.1,28.88,SSE,165,1.0,6.0,52,0.00,CLR,,0.00,WeatherDisplay:10.37,2013-07-30 22:55:00,
2013-07-30 17:58:00,75.0,55.7,28.88,South,180,5.8,5.8,51,0.00,CLR,,0.00,WeatherDisplay:10.37,2013-07-30 22:58:00,
2013-07-30 17:59:00,74.8,54.9,28.88,SSW,202,6.9,6.9,50,0.00,CLR,,0.00,WeatherDisplay:10.37,2013-07-30 22:59:00,
2013-07-30 18:00:00,74.9,55.0,28.88,SSE,155,5.0,7.0,50,0.00,CLR,,0.00,WeatherDisplay:10.37,2013-07-30 23:00:00,
2013-07-30 18:01:00,74.8,54.9,28.88,SSE,158,8.1,8.1,50,0.00,CLR,,0.00,WeatherDisplay:10.37,2013-07-30 23:01:00,
2013-07-30 18:03:00,75.2,55.3,28.88,ENE,68,6.9,6.9,50,0.00,CLR,,0.00,WeatherDisplay:10.37,2013-07-30 23:03:00,
2013-07-30 18:05:00,75.2,54.7,28.88,SSW,202,8.1,8.1,49,0.00,CLR,,0.00,WeatherDisplay:10.37,2013-07-30 23:05:00,
2013-07-30 18:06:00,75.6,55.6,28.88,NW,315,5.8,5.8,50,0.00,CLR,,0.00,WeatherDisplay:10.37,2013-07-30 23:06:00,
2013-07-30 18:08:00,75.6,54.5,28.88,South,180,8.1,8.1,48,0.00,CLR,,0.00,WeatherDisplay:10.37,2013-07-30 23:08:00,
2013-07-30 18:10:00,75.6,55.1,28.88,SSW,202,5.8,5.8,49,0.00,CLR,,0.00,WeatherDisplay:10.37,2013-07-30 23:10:00,
2013-07-30 18:12:00,75.6,55.1,28.88,SE,135,5.8,5.8,49,0.00,CLR,,0.00,WeatherDisplay:10.37,2013-07-30 23:12:00,
2013-07-30 18:13:00,75.6,55.1,28.88,ESE,112,5.6,5.6,49,0.00,CLR,,0.00,WeatherDisplay:10.37,2013-07-30 23:13:00,
2013-07-30 18:14:00,75.6,55.1,28.88,ENE,68,4.0,4.0,49,0.00,CLR,,0.00,WeatherDisplay:10.37,2013-07-30 23:14:00,
2013-07-30 18:15:00,75.6,55.1,28.88,SSW,202,5.8,5.8,49,0.00,CLR,,0.00,WeatherDisplay:10.37,2013-07-30 23:15:00,
2013-07-30 18:17:00,75.4,54.9,28.88,SSE,158,4.6,4.6,49,0.00,CLR,,0.00,WeatherDisplay:10.37,2013-07-30 23:17:00,
2013-07-30 18:18:00,75.4,54.9,28.88,SE,135,3.5,3.5,49,0.00,CLR,,0.00,WeatherDisplay:10.37,2013-07-30 23:18:00,
2013-07-30 18:19:00,75.2,54.7,28.88,SSE,158,5.8,5.8,49,0.00,CLR,,0.00,WeatherDisplay:10.37,2013-07-30 23:19:00,
2013-07-30 18:20:00,75.2,54.7,28.88,SE,135,10.7,10.7,49,0.00,CLR,,0.00,WeatherDisplay:10.37,2013-07-30 23:20:00,
2013-07-30 18:22:00,74.8,54.4,28.88,SSE,158,9.2,9.2,49,0.00,CLR,,0.00,WeatherDisplay:10.37,2013-07-30 23:22:00,
2013-07-30 18:24:00,74.8,54.4,28.88,SSE,158,9.2,9.2,49,0.00,CLR,,0.00,WeatherDisplay:10.37,2013-07-30 23:24:00,
2013-07-30 18:25:00,74.1,53.2,28.88,SE,135,8.1,8.1,48,0.00,CLR,,0.00,WeatherDisplay:10.37,2013-07-30 23:25:00,
2013-07-30 18:26:00,74.1,53.2,28.88,SSE,158,10.4,10.4,48,0.00,CLR,,0.00,WeatherDisplay:10.37,2013-07-30 23:26:00,
2013-07-30 18:28:00,73.6,53.2,28.88,South,180,6.0,6.0,49,0.00,CLR,,0.00,WeatherDisplay:10.37,2013-07-30 23:28:00,
2013-07-30 18:29:00,73.6,53.2,28.88,South,180,7.6,7.6,49,0.00,CLR,,0.00,WeatherDisplay:10.37,2013-07-30 23:29:00,
2013-07-30 18:31:00,73.6,53.8,28.88,SSE,158,8.1,8.1,50,0.00,CLR,,0.00,WeatherDisplay:10.37,2013-07-30 23:31:00,
2013-07-30 18:33:00,73.8,54.5,28.88,SE,135,5.9,5.9,51,0.00,CLR,,0.00,WeatherDisplay:10.37,2013-07-30 23:33:00,
2013-07-30 18:34:00,73.9,55.2,28.88,South,180,5.8,5.8,52,0.00,CLR,,0.00,WeatherDisplay:10.37,2013-07-30 23:34:00,
2013-07-30 18:35:00,73.9,55.2,28.88,SSE,158,5.8,5.8,52,0.00,CLR,,0.00,WeatherDisplay:10.37,2013-07-30 23:35:00,
2013-07-30 18:36:00,74.1,55.4,28.88,SE,135,6.9,6.9,52,0.00,CLR,,0.00,WeatherDisplay:10.37,2013-07-30 23:36:00,
2013-07-30 18:38:00,74.3,56.1,28.88,SSE,158,3.5,3.5,53,0.00,CLR,,0.00,WeatherDisplay:10.37,2013-07-30 23:38:00,
2013-07-30 18:39:00,74.3,56.1,28.88,SE,135,3.6,3.6,53,0.00,CLR,,0.00,WeatherDisplay:10.37,2013-07-30 23:39:00,
2013-07-30 18:40:00,74.5,56.2,28.88,ESE,112,3.5,3.5,53,0.00,CLR,,0.00,WeatherDisplay:10.37,2013-07-30 23:40:00,
2013-07-30 18:41:00,74.5,56.2,28.88,SE,135,3.5,3.5,53,0.00,CLR,,0.00,WeatherDisplay:10.37,2013-07-30 23:41:00,
2013-07-30 18:42:00,74.5,56.2,28.88,SE,135,3.5,3.5,53,0.00,CLR,,0.00,WeatherDisplay:10.37,2013-07-30 23:42:00,
2013-07-30 18:43:00,74.3,56.1,28.88,SSE,158,5.8,5.8,53,0.00,CLR,,0.00,WeatherDisplay:10.37,2013-07-30 23:43:00,
2013-07-30 18:44:00,74.1,55.9,28.88,SSE,158,5.8,5.8,53,0.00,CLR,,0.00,WeatherDisplay:10.37,2013-07-30 23:44:00,
2013-07-30 18:45:00,73.8,55.6,28.88,SSE,158,6.9,6.9,53,0.00,CLR,,0.00,WeatherDisplay:10.37,2013-07-30 23:45:00,
2013-07-30 18:46:00,73.6,55.9,28.88,SSE,158,4.6,4.6,54,0.00,CLR,,0.00,WeatherDisplay:10.37,2013-07-30 23:46:00,
2013-07-30 18:47:00,73.6,55.9,28.88,SSW,202,5.8,5.8,54,0.00,CLR,,0.00,WeatherDisplay:10.37,2013-07-30 23:47:00,
2013-07-30 18:48:00,73.6,55.9,28.88,SSE,158,8.1,8.1,54,0.00,CLR,,0.00,WeatherDisplay:10.37,2013-07-30 23:48:00,
2013-07-30 18:49:00,73.4,56.2,28.88,SSE,158,8.5,8.5,55,0.00,CLR,,0.00,WeatherDisplay:10.37,2013-07-30 23:49:00,
2013-07-30 18:52:00,73.2,56.6,28.88,SSE,158,5.8,5.8,56,0.00,CLR,,0.00,WeatherDisplay:10.37,2013-07-30 23:52:00,
2013-07-30 18:54:00,73.2,56.6,28.88,SSE,158,5.8,5.8,56,0.00,CLR,,0.00,WeatherDisplay:10.37,2013-07-30 23:54:00,
2013-07-30 18:57:00,73.0,57.4,28.85,SSE,158,5.8,5.8,58,0.00,CLR,,0.00,WeatherDisplay:10.37,2013-07-30 23:57:00,
2013-07-30 18:59:00,73.0,57.9,28.85,SE,135,5.8,5.8,59,0.00,CLR,,0.00,WeatherDisplay:10.37,2013-07-30 23:59:00,
2013-07-30 19:02:00,73.2,57.6,28.85,SSE,158,7.4,7.4,58,0.00,CLR,,0.00,WeatherDisplay:10.37,2013-07-31 00:02:00,
2013-07-30 19:04:00,73.2,57.6,28.85,SSE,158,8.1,8.1,58,0.00,CLR,,0.00,WeatherDisplay:10.37,2013-07-31 00:04:00,
2013-07-30 19:07:00,73.4,58.2,28.85,South,180,5.8,5.8,59,0.00,CLR,,0.00,WeatherDisplay:10.37,2013-07-31 00:07:00,
2013-07-30 19:08:00,73.4,58.2,28.85,South,180,3.5,3.5,59,0.00,CLR,,0.00,WeatherDisplay:10.37,2013-07-31 00:08:00,
2013-07-30 19:10:00,73.6,58.4,28.85,SSE,158,3.5,3.5,59,0.00,CLR,,0.00,WeatherDisplay:10.37,2013-07-31 00:10:00,
2013-07-30 19:13:00,73.8,58.5,28.85,SE,135,4.6,4.6,59,0.00,CLR,,0.00,WeatherDisplay:10.37,2013-07-31 00:13:00,
2013-07-30 19:15:00,73.8,58.5,28.85,SSE,158,5.8,5.8,59,0.00,CLR,,0.00,WeatherDisplay:10.37,2013-07-31 00:15:00,
2013-07-30 19:18:00,73.6,58.4,28.85,SSW,202,4.6,4.6,59,0.00,CLR,,0.00,WeatherDisplay:10.37,2013-07-31 00:18:00,
2013-07-30 19:20:00,73.8,58.1,28.85,SSE,158,3.5,3.5,58,0.00,CLR,,0.00,WeatherDisplay:10.37,2013-07-31 00:20:00,
2013-07-30 19:23:00,73.4,58.2,28.85,SE,135,5.8,5.8,59,0.00,CLR,,0.00,WeatherDisplay:10.37,2013-07-31 00:23:00,
2013-07-30 19:24:00,73.4,58.2,28.85,SE,135,5.8,5.8,59,0.00,CLR,,0.00,WeatherDisplay:10.37,2013-07-31 00:24:00,
2013-07-30 19:25:00,73.4,58.2,28.85,South,180,6.9,6.9,59,0.00,CLR,,0.00,WeatherDisplay:10.37,2013-07-31 00:25:00,
2013-07-30 19:28:00,72.3,57.7,28.85,South,180,6.9,6.9,60,0.00,CLR,,0.00,WeatherDisplay:10.37,2013-07-31 00:28:00,
2013-07-30 19:29:00,72.3,57.7,28.85,South,180,5.8,5.8,60,0.00,CLR,,0.00,WeatherDisplay:10.37,2013-07-31 00:29:00,
2013-07-30 19:30:00,72.1,57.9,28.85,SSE,158,5.8,5.8,61,0.00,CLR,,0.00,WeatherDisplay:10.37,2013-07-31 00:30:00,
2013-07-30 19:31:00,72.1,57.9,28.85,SSE,158,5.9,5.9,61,0.00,CLR,,0.00,WeatherDisplay:10.37,2013-07-31 00:31:00,
2013-07-30 19:33:00,71.6,57.9,28.85,SSW,202,5.8,5.8,62,0.00,CLR,,0.00,WeatherDisplay:10.37,2013-07-31 00:33:00,
2013-07-30 19:34:00,71.4,57.7,28.85,South,180,3.5,3.6,62,0.00,CLR,,0.00,WeatherDisplay:10.37,2013-07-31 00:34:00,
2013-07-30 19:36:00,71.4,57.7,28.85,South,180,2.6,0.0,62,0.00,CLR,,0.00,WeatherDisplay:10.37,2013-07-31 00:36:00,
2013-07-30 19:37:00,71.4,58.2,28.85,SSE,158,3.5,3.6,63,0.00,CLR,,0.00,WeatherDisplay:10.37,2013-07-31 00:37:00,
2013-07-30 19:38:00,71.2,58.4,28.85,South,180,5.9,5.9,64,0.00,CLR,,0.00,WeatherDisplay:10.37,2013-07-31 00:38:00,
2013-07-30 19:39:00,71.1,58.3,28.85,South,180,5.8,5.8,64,0.00,CLR,,0.00,WeatherDisplay:10.37,2013-07-31 00:39:00,
2013-07-30 19:41:00,71.1,58.3,28.85,SSE,158,3.5,3.5,64,0.00,CLR,,0.00,WeatherDisplay:10.37,2013-07-31 00:41:00,
2013-07-30 19:42:00,70.9,58.1,28.85,South,180,3.5,3.5,64,0.00,CLR,,0.00,WeatherDisplay:10.37,2013-07-31 00:42:00,
2013-07-30 19:44:00,70.7,58.4,28.85,South,180,4.6,4.6,65,0.00,CLR,,0.00,WeatherDisplay:10.37,2013-07-31 00:44:00,
2013-07-30 19:45:00,70.7,58.4,28.85,SSE,158,4.6,4.6,65,0.00,CLR,,0.00,WeatherDisplay:10.37,2013-07-31 00:45:00,
2013-07-30 19:46:00,70.7,58.4,28.85,SSE,158,3.5,3.5,65,0.00,CLR,,0.00,WeatherDisplay:10.37,2013-07-31 00:46:00,
2013-07-30 19:48:00,70.5,58.6,28.85,SSE,158,3.5,3.5,66,0.00,CLR,,0.00,WeatherDisplay:10.37,2013-07-31 00:48:00,
2013-07-30 19:49:00,70.5,58.6,28.85,South,180,3.5,3.5,66,0.00,CLR,,0.00,WeatherDisplay:10.37,2013-07-31 00:49:00,
2013-07-30 19:50:00,70.5,58.6,28.85,SSE,158,3.5,3.5,66,0.00,CLR,,0.00,WeatherDisplay:10.37,2013-07-31 00:50:00,
2013-07-30 19:51:00,70.5,58.6,28.85,SSE,158,4.3,4.3,66,0.00,CLR,,0.00,WeatherDisplay:10.37,2013-07-31 00:51:00,
2013-07-30 19:53:00,70.3,58.9,28.85,SE,135,4.6,4.6,67,0.00,CLR,,0.00,WeatherDisplay:10.37,2013-07-31 00:53:00,
2013-07-30 19:54:00,70.3,58.9,28.88,SSE,158,4.6,4.6,67,0.00,CLR,,0.00,WeatherDisplay:10.37,2013-07-31 00:54:00,
2013-07-30 19:55:00,70.3,58.9,28.88,SSE,158,3.5,3.5,67,0.00,CLR,,0.00,WeatherDisplay:10.37,2013-07-31 00:55:00,
2013-07-30 19:56:00,70.3,58.9,28.88,SSE,158,3.5,3.5,67,0.00,CLR,,0.00,WeatherDisplay:10.37,2013-07-31 00:56:00,
2013-07-30 19:58:00,70.2,58.7,28.88,South,180,3.5,3.5,67,0.00,CLR,,0.00,WeatherDisplay:10.37,2013-07-31 00:58:00,
2013-07-30 19:59:00,70.2,58.7,28.88,South,180,4.6,4.6,67,0.00,CLR,,0.00,WeatherDisplay:10.37,2013-07-31 00:59:00,
2013-07-30 20:00:00,70.2,58.7,28.88,SSE,158,3.5,3.5,67,0.00,CLR,,0.00,WeatherDisplay:10.37,2013-07-31 01:00:00,
2013-07-30 20:01:00,70.2,59.1,28.88,SSE,158,4.6,4.6,68,0.00,CLR,,0.00,WeatherDisplay:10.37,2013-07-31 01:01:00,
2013-07-30 20:03:00,70.0,58.9,28.88,SSE,158,5.8,5.8,68,0.00,CLR,,0.00,WeatherDisplay:10.37,2013-07-31 01:03:00,
2013-07-30 20:05:00,70.0,58.9,28.88,SE,135,3.8,3.8,68,0.00,CLR,,0.00,WeatherDisplay:10.37,2013-07-31 01:05:00,
2013-07-30 20:06:00,70.0,58.9,28.88,SSE,158,5.8,5.8,68,0.00,CLR,,0.00,WeatherDisplay:10.37,2013-07-31 01:06:00,
2013-07-30 20:07:00,70.0,58.9,28.88,SSE,158,5.8,5.8,68,0.00,CLR,,0.00,WeatherDisplay:10.37,2013-07-31 01:07:00,
2013-07-30 20:08:00,69.8,58.8,28.88,SE,135,3.6,3.6,68,0.00,CLR,,0.00,WeatherDisplay:10.37,2013-07-31 01:08:00,
2013-07-30 20:10:00,69.8,58.8,28.85,South,180,3.5,3.5,68,0.00,CLR,,0.00,WeatherDisplay:10.37,2013-07-31 01:10:00,
2013-07-30 20:11:00,69.8,58.8,28.85,SSW,202,2.3,2.3,68,0.00,CLR,,0.00,WeatherDisplay:10.37,2013-07-31 01:11:00,
2013-07-30 20:13:00,69.6,58.6,28.85,SSE,158,1.2,1.2,68,0.00,CLR,,0.00,WeatherDisplay:10.37,2013-07-31 01:13:00,
2013-07-30 20:14:00,69.6,58.6,28.85,SSE,158,2.3,0.0,68,0.00,CLR,,0.00,WeatherDisplay:10.37,2013-07-31 01:14:00,
2013-07-30 20:15:00,69.6,58.6,28.85,South,180,2.3,2.3,68,0.00,CLR,,0.00,WeatherDisplay:10.37,2013-07-31 01:15:00,
2013-07-30 20:16:00,69.6,59.0,28.85,SSW,202,2.3,2.3,69,0.00,CLR,,0.00,WeatherDisplay:10.37,2013-07-31 01:16:00,
2013-07-30 20:18:00,69.4,58.8,28.85,South,180,3.5,3.5,69,0.00,CLR,,0.00,WeatherDisplay:10.37,2013-07-31 01:18:00,
2013-07-30 20:19:00,69.4,58.8,28.85,SSW,202,3.5,3.5,69,0.00,CLR,,0.00,WeatherDisplay:10.37,2013-07-31 01:19:00,
2013-07-30 20:20:00,69.3,58.7,28.85,South,180,2.3,2.3,69,0.00,CLR,,0.00,WeatherDisplay:10.37,2013-07-31 01:20:00,
2013-07-30 20:21:00,69.3,58.7,28.85,SSE,158,3.3,3.3,69,0.00,CLR,,0.00,WeatherDisplay:10.37,2013-07-31 01:21:00,
2013-07-30 20:23:00,69.1,58.5,28.85,SSE,158,3.5,3.5,69,0.00,CLR,,0.00,WeatherDisplay:10.37,2013-07-31 01:23:00,
2013-07-30 20:25:00,69.1,58.9,28.85,SSE,158,4.6,4.6,70,0.00,CLR,,0.00,WeatherDisplay:10.37,2013-07-31 01:25:00,
2013-07-30 20:26:00,68.9,58.7,28.85,SSE,158,3.6,3.6,70,0.00,CLR,,0.00,WeatherDisplay:10.37,2013-07-31 01:26:00,
2013-07-30 20:28:00,68.9,58.7,28.85,SSE,158,2.4,2.4,70,0.00,CLR,,0.00,WeatherDisplay:10.37,2013-07-31 01:28:00,
2013-07-30 20:30:00,68.7,58.5,28.85,SSW,202,2.9,2.9,70,0.00,CLR,,0.00,WeatherDisplay:10.37,2013-07-31 01:30:00,
2013-07-30 20:32:00,68.7,58.5,28.85,SSE,158,4.6,4.6,70,0.00,CLR,,0.00,WeatherDisplay:10.37,2013-07-31 01:32:00,
2013-07-30 20:33:00,68.5,58.8,28.85,SSE,158,5.8,5.8,71,0.00,CLR,,0.00,WeatherDisplay:10.37,2013-07-31 01:33:00,
2013-07-30 20:35:00,68.5,59.2,28.85,South,180,5.8,5.8,72,0.00,CLR,,0.00,WeatherDisplay:10.37,2013-07-31 01:35:00,
2013-07-30 20:37:00,68.4,59.0,28.85,SSE,158,4.6,4.6,72,0.00,CLR,,0.00,WeatherDisplay:10.37,2013-07-31 01:37:00,
2013-07-30 20:39:00,68.4,59.0,28.85,SSE,158,5.8,5.8,72,0.00,CLR,,0.00,WeatherDisplay:10.37,2013-07-31 01:39:00,
2013-07-30 20:40:00,68.2,59.2,28.85,SSE,158,4.6,4.6,73,0.00,CLR,,0.00,WeatherDisplay:10.37,2013-07-31 01:40:00,
2013-07-30 20:41:00,68.2,59.2,28.85,SE,135,4.6,4.6,73,0.00,CLR,,0.00,WeatherDisplay:10.37,2013-07-31 01:41:00,
2013-07-30 20:42:00,68.2,59.2,28.85,SSE,158,4.9,4.9,73,0.00,CLR,,0.00,WeatherDisplay:10.37,2013-07-31 01:42:00,
2013-07-30 20:44:00,68.0,59.0,28.85,SSE,158,4.6,4.6,73,0.00,CLR,,0.00,WeatherDisplay:10.37,2013-07-31 01:44:00,
2013-07-30 20:45:00,68.0,59.0,28.85,South,180,3.5,3.5,73,0.00,CLR,,0.00,WeatherDisplay:10.37,2013-07-31 01:45:00,
2013-07-30 20:46:00,68.0,59.0,28.85,SSE,158,4.5,4.5,73,0.00,CLR,,0.00,WeatherDisplay:10.37,2013-07-31 01:46:00,
2013-07-30 20:47:00,68.0,59.0,28.85,SSE,158,5.8,5.8,73,0.00,CLR,,0.00,WeatherDisplay:10.37,2013-07-31 01:47:00,
2013-07-30 20:50:00,67.8,58.8,28.85,SSW,202,0.0,0.0,73,0.00,CLR,,0.00,WeatherDisplay:10.37,2013-07-31 01:50:00,
2013-07-30 20:51:00,67.8,58.8,28.85,SSW,202,0.0,0.0,73,0.00,CLR,,0.00,WeatherDisplay:10.37,2013-07-31 01:51:00,
2013-07-30 20:52:00,67.8,58.8,28.85,SW,225,0.0,0.0,73,0.00,CLR,,0.00,WeatherDisplay:10.37,2013-07-31 01:52:00,
2013-07-30 20:55:00,67.8,58.5,28.85,SW,225,0.0,0.0,72,0.00,CLR,,0.00,WeatherDisplay:10.37,2013-07-31 01:55:00,
2013-07-30 20:56:00,67.6,58.7,28.85,SW,225,0.0,0.0,73,0.00,CLR,,0.00,WeatherDisplay:10.37,2013-07-31 01:56:00,
2013-07-30 20:58:00,67.6,58.7,28.85,SW,225,0.0,0.0,73,0.00,CLR,,0.00,WeatherDisplay:10.37,2013-07-31 01:58:00,
2013-07-30 21:00:00,67.6,58.7,28.85,SW,225,0.0,0.0,73,0.00,CLR,,0.00,WeatherDisplay:10.37,2013-07-31 02:00:00,
2013-07-30 21:02:00,67.5,58.5,28.85,SSW,202,0.0,0.0,73,0.00,CLR,,0.00,WeatherDisplay:10.37,2013-07-31 02:02:00,
2013-07-30 21:03:00,67.5,58.9,28.85,SSW,202,0.0,0.0,74,0.00,CLR,,0.00,WeatherDisplay:10.37,2013-07-31 02:03:00,
2013-07-30 21:05:00,67.5,58.9,28.85,SSW,202,0.0,0.0,74,0.00,CLR,,0.00,WeatherDisplay:10.37,2013-07-31 02:05:00,
2013-07-30 21:07:00,67.3,58.7,28.85,WSW,248,0.0,0.0,74,0.00,CLR,,0.00,WeatherDisplay:10.37,2013-07-31 02:07:00,
2013-07-30 21:08:00,67.3,58.7,28.85,WSW,248,0.0,0.0,74,0.00,CLR,,0.00,WeatherDisplay:10.37,2013-07-31 02:08:00,
2013-07-30 21:09:00,67.3,58.7,28.85,WSW,248,0.0,0.0,74,0.00,CLR,,0.00,WeatherDisplay:10.37,2013-07-31 02:09:00,
2013-07-30 21:10:00,67.3,59.1,28.88,SW,225,0.0,0.0,75,0.00,CLR,,0.00,WeatherDisplay:10.37,2013-07-31 02:10:00,
2013-07-30 21:13:00,67.3,59.1,28.88,SW,225,0.0,0.0,75,0.00,CLR,,0.00,WeatherDisplay:10.37,2013-07-31 02:13:00,
2013-07-30 21:14:00,67.3,59.1,28.88,SW,225,0.0,0.0,75,0.00,CLR,,0.00,WeatherDisplay:10.37,2013-07-31 02:14:00,
2013-07-30 21:16:00,67.3,59.1,28.88,South,180,0.0,0.0,75,0.00,CLR,,0.00,WeatherDisplay:10.37,2013-07-31 02:16:00,
2013-07-30 21:18:00,67.3,59.5,28.88,SSE,158,0.0,0.0,76,0.00,CLR,,0.00,WeatherDisplay:10.37,2013-07-31 02:18:00,
2013-07-30 21:19:00,67.3,59.5,28.88,SSE,158,0.0,0.0,76,0.00,CLR,,0.00,WeatherDisplay:10.37,2013-07-31 02:19:00,
2013-07-30 21:21:00,67.1,59.6,28.88,SSE,158,0.0,0.0,77,0.00,CLR,,0.00,WeatherDisplay:10.37,2013-07-31 02:21:00,
2013-07-30 21:24:00,67.3,59.8,28.88,SW,225,0.0,0.0,77,0.00,CLR,,0.00,WeatherDisplay:10.37,2013-07-31 02:24:00,
2013-07-30 21:26:00,67.3,60.2,28.88,SSW,202,0.0,0.0,78,0.00,CLR,,0.00,WeatherDisplay:10.37,2013-07-31 02:26:00,
2013-07-30 21:29:00,67.3,60.2,28.88,WSW,248,0.0,0.0,78,0.00,CLR,,0.00,WeatherDisplay:10.37,2013-07-31 02:29:00,
2013-07-30 21:31:00,67.3,59.8,28.88,WNW,292,1.2,1.2,77,0.00,CLR,,0.00,WeatherDisplay:10.37,2013-07-31 02:31:00,
2013-07-30 21:34:00,67.3,60.2,28.88,NNW,338,0.0,0.0,78,0.00,CLR,,0.00,WeatherDisplay:10.37,2013-07-31 02:34:00,
2013-07-30 21:35:00,67.3,60.2,28.88,West,259,0.0,1.0,78,0.00,CLR,,0.00,WeatherDisplay:10.37,2013-07-31 02:35:00,
2013-07-30 21:36:00,67.1,60.0,28.88,NNW,338,0.0,0.0,78,0.00,CLR,,0.00,WeatherDisplay:10.37,2013-07-31 02:36:00,
2013-07-30 21:39:00,67.1,60.0,28.88,NNW,338,0.0,0.0,78,0.00,CLR,,0.00,WeatherDisplay:10.37,2013-07-31 02:39:00,
2013-07-30 21:40:00,67.1,60.0,28.88,NNW,338,0.0,0.0,78,0.00,CLR,,0.00,WeatherDisplay:10.37,2013-07-31 02:40:00,
2013-07-30 21:42:00,66.9,59.8,28.88,NNW,338,0.0,0.0,78,0.00,CLR,,0.00,WeatherDisplay:10.37,2013-07-31 02:42:00,
2013-07-30 21:44:00,66.9,59.8,28.88,NNW,338,0.0,0.0,78,0.00,CLR,,0.00,WeatherDisplay:10.37,2013-07-31 02:44:00,
2013-07-30 21:45:00,66.9,59.8,28.88,NNW,338,0.0,0.0,78,0.00,CLR,,0.00,WeatherDisplay:10.37,2013-07-31 02:45:00,
2013-07-30 21:46:00,66.9,59.8,28.88,NNW,338,0.0,0.0,78,0.00,CLR,,0.00,WeatherDisplay:10.37,2013-07-31 02:46:00,
2013-07-30 21:47:00,67.1,60.0,28.88,NNW,338,0.0,0.0,78,0.00,CLR,,0.00,WeatherDisplay:10.37,2013-07-31 02:47:00,
2013-07-30 21:49:00,67.1,60.0,28.88,NNW,338,0.0,0.0,78,0.00,CLR,,0.00,WeatherDisplay:10.37,2013-07-31 02:49:00,
2013-07-30 21:50:00,67.1,60.0,28.88,NNW,338,0.0,0.0,78,0.00,CLR,,0.00,WeatherDisplay:10.37,2013-07-31 02:50:00,
2013-07-30 21:51:00,67.1,60.0,28.88,NNW,338,0.0,0.0,78,0.00,CLR,,0.00,WeatherDisplay:10.37,2013-07-31 02:51:00,
2013-07-30 21:53:00,67.1,60.0,28.88,NNW,338,0.0,0.0,78,0.00,CLR,,0.00,WeatherDisplay:10.37,2013-07-31 02:53:00,
2013-07-30 21:54:00,67.1,60.0,28.91,NNW,338,0.0,0.0,78,0.00,CLR,,0.00,WeatherDisplay:10.37,2013-07-31 02:54:00,
2013-07-30 21:55:00,67.1,60.0,28.91,NNE,22,0.0,0.0,78,0.00,CLR,,0.00,WeatherDisplay:10.37,2013-07-31 02:55:00,
2013-07-30 21:56:00,67.1,60.0,28.91,ESE,112,0.0,0.0,78,0.00,CLR,,0.00,WeatherDisplay:10.37,2013-07-31 02:56:00,
2013-07-30 21:58:00,67.1,60.0,28.91,ESE,112,0.0,0.0,78,0.00,CLR,,0.00,WeatherDisplay:10.37,2013-07-31 02:58:00,
2013-07-30 21:59:00,67.1,60.4,28.91,ESE,112,0.0,0.0,79,0.00,CLR,,0.00,WeatherDisplay:10.37,2013-07-31 02:59:00,
2013-07-30 22:00:00,67.1,60.4,28.91,ESE,112,0.0,0.0,79,0.00,CLR,,0.00,WeatherDisplay:10.37,2013-07-31 03:00:00,
2013-07-30 22:01:00,67.1,60.4,28.91,SSE,158,0.0,0.0,79,0.00,CLR,,0.00,WeatherDisplay:10.37,2013-07-31 03:01:00,
2013-07-30 22:02:00,67.3,61.2,28.91,SSE,158,4.0,4.0,81,0.00,CLR,,0.00,WeatherDisplay:10.37,2013-07-31 03:02:00,
2013-07-30 22:03:00,67.3,61.2,28.91,SSE,158,4.6,4.6,81,0.00,CLR,,0.00,WeatherDisplay:10.37,2013-07-31 03:03:00,
2013-07-30 22:05:00,67.5,61.4,28.91,SE,135,3.5,3.5,81,0.00,CLR,,0.00,WeatherDisplay:10.37,2013-07-31 03:05:00,
2013-07-30 22:06:00,67.6,61.6,28.91,SSE,158,3.5,3.6,81,0.00,CLR,,0.00,WeatherDisplay:10.37,2013-07-31 03:06:00,
2013-07-30 22:07:00,67.6,61.6,28.91,SSE,158,4.0,4.0,81,0.00,CLR,,0.00,WeatherDisplay:10.37,2013-07-31 03:07:00,
2013-07-30 22:08:00,67.6,61.6,28.91,SSE,158,4.6,4.6,81,0.00,CLR,,0.00,WeatherDisplay:10.37,2013-07-31 03:08:00,
2013-07-30 22:10:00,67.6,61.2,28.88,SSW,202,2.3,0.0,80,0.00,CLR,,0.00,WeatherDisplay:10.37,2013-07-31 03:10:00,
2013-07-30 22:12:00,67.6,61.2,28.88,WSW,248,2.3,2.3,80,0.00,CLR,,0.00,WeatherDisplay:10.37,2013-07-31 03:12:00,
2013-07-30 22:13:00,67.6,61.2,28.88,WSW,248,2.3,0.0,80,0.00,CLR,,0.00,WeatherDisplay:10.37,2013-07-31 03:13:00,
2013-07-30 22:15:00,67.6,60.9,28.88,SSW,202,1.2,0.0,79,0.00,CLR,,0.00,WeatherDisplay:10.37,2013-07-31 03:15:00,
2013-07-30 22:18:00,67.6,60.9,28.88,SSE,158,0.0,0.0,79,0.00,CLR,,0.00,WeatherDisplay:10.37,2013-07-31 03:18:00,
2013-07-30 22:20:00,67.6,61.2,28.88,SSW,202,5.8,5.8,80,0.00,CLR,,0.00,WeatherDisplay:10.37,2013-07-31 03:20:00,
2013-07-30 22:21:00,67.6,61.2,28.88,SW,225,1.2,0.0,80,0.00,CLR,,0.00,WeatherDisplay:10.37,2013-07-31 03:21:00,
2013-07-30 22:23:00,67.6,61.2,28.88,SSE,158,1.2,1.2,80,0.00,CLR,,0.00,WeatherDisplay:10.37,2013-07-31 03:23:00,
2013-07-30 22:24:00,67.6,61.2,28.88,South,180,3.5,0.0,80,0.00,CLR,,0.00,WeatherDisplay:10.37,2013-07-31 03:24:00,
2013-07-30 22:25:00,67.6,61.2,28.88,SSE,158,4.6,4.6,80,0.00,CLR,,0.00,WeatherDisplay:10.37,2013-07-31 03:25:00,
2013-07-30 22:27:00,67.6,61.2,28.88,SSW,202,3.5,3.5,80,0.00,CLR,,0.00,WeatherDisplay:10.37,2013-07-31 03:27:00,
2013-07-30 22:28:00,67.6,61.2,28.88,SSW,202,4.0,0.0,80,0.00,CLR,,0.00,WeatherDisplay:10.37,2013-07-31 03:28:00,
2013-07-30 22:29:00,67.6,61.2,28.88,SSW,202,4.0,0.0,80,0.00,CLR,,0.00,WeatherDisplay:10.37,2013-07-31 03:29:00,
2013-07-30 22:30:00,67.6,61.2,28.88,ESE,112,4.6,4.6,80,0.00,CLR,,0.00,WeatherDisplay:10.37,2013-07-31 03:30:00,
2013-07-30 22:32:00,67.6,61.6,28.88,SSE,158,5.4,5.4,81,0.00,CLR,,0.00,WeatherDisplay:10.37,2013-07-31 03:32:00,
2013-07-30 22:33:00,67.6,61.6,28.88,SSW,202,5.8,5.8,81,0.00,CLR,,0.00,WeatherDisplay:10.37,2013-07-31 03:33:00,
2013-07-30 22:34:00,67.6,61.6,28.88,SSE,158,5.8,5.8,81,0.00,CLR,,0.00,WeatherDisplay:10.37,2013-07-31 03:34:00,
2013-07-30 22:35:00,67.6,61.6,28.88,SSE,158,3.5,3.5,81,0.00,CLR,,0.00,WeatherDisplay:10.37,2013-07-31 03:35:00,
2013-07-30 22:38:00,67.6,61.6,28.88,WSW,248,5.8,5.8,81,0.00,CLR,,0.00,WeatherDisplay:10.37,2013-07-31 03:38:00,
2013-07-30 22:39:00,67.6,61.6,28.88,SSE,158,5.8,5.8,81,0.00,CLR,,0.00,WeatherDisplay:10.37,2013-07-31 03:39:00,
2013-07-30 22:40:00,67.6,61.6,28.88,SSW,202,5.8,5.8,81,0.00,CLR,,0.00,WeatherDisplay:10.37,2013-07-31 03:40:00,
2013-07-30 22:41:00,67.5,61.4,28.88,SSE,158,4.6,4.6,81,0.00,CLR,,0.00,WeatherDisplay:10.37,2013-07-31 03:41:00,
2013-07-30 22:43:00,67.5,61.4,28.88,SSE,158,4.6,4.6,81,0.00,CLR,,0.00,WeatherDisplay:10.37,2013-07-31 03:43:00,
2013-07-30 22:44:00,67.5,61.4,28.88,SSE,158,3.5,3.5,81,0.00,CLR,,0.00,WeatherDisplay:10.37,2013-07-31 03:44:00,
2013-07-30 22:45:00,67.5,61.4,28.88,West,270,5.8,5.8,81,0.00,CLR,,0.00,WeatherDisplay:10.37,2013-07-31 03:45:00,
2013-07-30 22:47:00,67.5,61.4,28.88,SSW,202,6.9,6.9,81,0.00,CLR,,0.00,WeatherDisplay:10.37,2013-07-31 03:47:00,
2013-07-30 22:49:00,67.5,61.4,28.88,SSE,158,6.9,6.9,81,0.00,CLR,,0.00,WeatherDisplay:10.37,2013-07-31 03:49:00,
2013-07-30 22:50:00,67.5,61.4,28.88,SE,135,8.1,8.1,81,0.00,CLR,,0.00,WeatherDisplay:10.37,2013-07-31 03:50:00,
2013-07-30 22:52:00,67.5,61.4,28.88,SE,135,7.4,7.4,81,0.00,CLR,,0.00,WeatherDisplay:10.37,2013-07-31 03:52:00,
2013-07-30 22:54:00,67.5,61.4,28.88,SSW,202,9.2,9.2,81,0.00,CLR,,0.00,WeatherDisplay:10.37,2013-07-31 03:54:00,
2013-07-30 22:55:00,67.5,61.4,28.88,SSE,158,8.1,8.1,81,0.00,CLR,,0.00,WeatherDisplay:10.37,2013-07-31 03:55:00,
2013-07-30 22:57:00,67.5,61.4,28.88,SW,225,10.4,10.4,81,0.00,CLR,,0.00,WeatherDisplay:10.37,2013-07-31 03:57:00,
2013-07-30 22:59:00,67.5,61.4,28.88,SE,135,5.8,5.8,81,0.00,CLR,,0.00,WeatherDisplay:10.37,2013-07-31 03:59:00,
2013-07-30 23:00:00,67.5,61.4,28.88,SW,225,8.5,8.5,81,0.00,CLR,,0.00,WeatherDisplay:10.37,2013-07-31 04:00:00,
2013-07-30 23:01:00,67.5,61.4,28.88,NNW,338,6.0,6.0,81,0.00,CLR,,0.00,WeatherDisplay:10.37,2013-07-31 04:01:00,
2013-07-30 23:06:00,67.5,61.4,28.88,SSW,202,8.1,8.1,81,0.00,CLR,,0.00,WeatherDisplay:10.37,2013-07-31 04:06:00,
2013-07-30 23:07:00,67.3,61.2,28.88,NNW,338,2.6,2.6,81,0.00,CLR,,0.00,WeatherDisplay:10.37,2013-07-31 04:07:00,
2013-07-30 23:11:00,67.3,60.9,28.88,SSW,202,2.3,0.0,80,0.00,CLR,,0.00,WeatherDisplay:10.37,2013-07-31 04:11:00,
2013-07-30 23:12:00,67.3,61.2,28.88,SSE,158,2.9,0.0,81,0.00,CLR,,0.00,WeatherDisplay:10.37,2013-07-31 04:12:00,
2013-07-30 23:16:00,67.3,60.9,28.88,South,180,0.0,1.2,80,0.00,CLR,,0.00,WeatherDisplay:10.37,2013-07-31 04:16:00,
2013-07-30 23:17:00,67.3,60.9,28.88,South,180,0.0,1.2,80,0.00,CLR,,0.00,WeatherDisplay:10.37,2013-07-31 04:17:00,
2013-07-30 23:22:00,67.3,61.2,28.88,SSW,202,3.5,0.0,81,0.00,CLR,,0.00,WeatherDisplay:10.37,2013-07-31 04:22:00,
2013-07-30 23:23:00,67.3,61.2,28.88,SSW,202,3.5,0.0,81,0.00,CLR,,0.00,WeatherDisplay:10.37,2013-07-31 04:23:00,
2013-07-30 23:27:00,67.1,60.7,28.88,SW,225,0.0,0.0,80,0.00,CLR,,0.00,WeatherDisplay:10.37,2013-07-31 04:27:00,
2013-07-30 23:28:00,67.1,60.7,28.88,West,270,0.0,0.0,80,0.00,CLR,,0.00,WeatherDisplay:10.37,2013-07-31 04:28:00,
2013-07-30 23:32:00,67.1,61.1,28.88,SSW,202,1.2,1.2,81,0.00,CLR,,0.00,WeatherDisplay:10.37,2013-07-31 04:32:00,
2013-07-30 23:33:00,67.1,61.1,28.88,SSW,202,1.2,1.2,81,0.00,CLR,,0.00,WeatherDisplay:10.37,2013-07-31 04:33:00,
2013-07-30 23:37:00,67.1,61.4,28.88,SSE,158,4.3,4.3,82,0.00,CLR,,0.00,WeatherDisplay:10.37,2013-07-31 04:37:00,
2013-07-30 23:38:00,67.1,61.4,28.88,SSE,158,4.6,4.6,82,0.00,CLR,,0.00,WeatherDisplay:10.37,2013-07-31 04:38:00,
2013-07-30 23:42:00,66.9,61.2,28.88,South,180,2.3,2.3,82,0.00,CLR,,0.00,WeatherDisplay:10.37,2013-07-31 04:42:00,
2013-07-30 23:43:00,66.9,61.2,28.88,SSE,158,2.3,2.3,82,0.00,CLR,,0.00,WeatherDisplay:10.37,2013-07-31 04:43:00,
2013-07-30 23:44:00,66.9,61.2,28.88,SE,135,4.6,4.6,82,0.00,CLR,,0.00,WeatherDisplay:10.37,2013-07-31 04:44:00,
2013-07-30 23:47:00,66.9,61.2,28.88,SE,135,3.5,3.5,82,0.00,CLR,,0.00,WeatherDisplay:10.37,2013-07-31 04:47:00,
2013-07-30 23:48:00,66.9,61.2,28.88,SE,135,3.5,3.5,82,0.00,CLR,,0.00,WeatherDisplay:10.37,2013-07-31 04:48:00,
2013-07-30 23:49:00,66.9,61.2,28.88,South,180,2.2,0.0,82,0.00,CLR,,0.00,WeatherDisplay:10.37,2013-07-31 04:49:00,
2013-07-30 23:53:00,66.7,61.1,28.88,South,180,0.0,0.0,82,0.00,CLR,,0.00,WeatherDisplay:10.37,2013-07-31 04:53:00,
2013-07-30 23:54:00,66.7,60.7,28.88,East,90,1.4,0.0,81,0.00,CLR,,0.00,WeatherDisplay:10.37,2013-07-31 04:54:00,
2013-07-30 23:58:00,66.7,61.1,28.88,ESE,112,3.5,3.5,82,0.00,CLR,,0.00,WeatherDisplay:10.37,2013-07-31 04:58:00,
2013-07-30 23:59:00,66.7,61.1,28.88,SE,135,3.5,3.5,82,0.00,CLR,,0.00,WeatherDisplay:10.37,2013-07-31 04:59:00,